GEFSCGP_prec_meanprecacc_120.txt.gz
Total_Precipitation_Accumulation
1.45 1.40 1.04 0.60 0.45 0.34 0.32 0.36 0.34 0.30 0.27 0.36 0.38 0.34 0.32 0.32 0.27 0.25 0.27 0.31 0.34 0.40 0.49 0.60 0.68 0.79 0.98 1.19 1.36 1.33 1.40 1.50 1.51 1.50 1.41 1.24 1.02 0.90 0.85 0.75 0.67 0.57 0.49 0.41
1.38 1.06 0.57 0.43 0.44 0.41 0.39 0.40 0.34 0.28 0.25 0.31 0.31 0.28 0.28 0.30 0.28 0.22 0.20 0.22 0.25 0.34 0.37 0.44 0.54 0.63 0.80 0.96 1.07 1.17 1.19 1.31 1.39 1.36 1.33 1.37 1.39 1.23 1.08 0.93 0.79 0.66 0.62 0.57
0.99 0.62 0.44 0.50 0.55 0.55 0.47 0.42 0.34 0.29 0.27 0.31 0.30 0.29 0.26 0.24 0.23 0.20 0.17 0.19 0.22 0.27 0.29 0.31 0.37 0.50 0.62 0.75 0.85 0.94 1.00 1.06 1.13 1.27 1.36 1.40 1.44 1.36 1.11 0.88 0.72 0.73 0.77 0.74
0.87 0.50 0.51 0.62 0.56 0.53 0.53 0.34 0.31 0.29 0.37 0.41 0.30 0.36 0.25 0.22 0.22 0.19 0.15 0.16 0.19 0.20 0.23 0.27 0.32 0.41 0.47 0.54 0.67 0.78 0.88 0.95 0.98 1.11 1.13 1.08 0.99 0.98 0.92 0.87 0.84 0.85 0.87 0.84
0.88 0.56 0.57 0.68 0.49 0.44 0.44 0.33 0.36 0.37 0.41 0.40 0.27 0.31 0.30 0.22 0.24 0.20 0.14 0.14 0.16 0.15 0.18 0.26 0.31 0.33 0.36 0.40 0.48 0.60 0.75 0.81 0.83 0.89 0.94 1.01 0.98 0.94 0.99 0.98 0.90 0.82 0.78 0.81
0.66 0.57 0.62 0.58 0.44 0.44 0.44 0.52 0.56 0.55 0.64 0.60 0.25 0.24 0.27 0.24 0.27 0.24 0.16 0.15 0.14 0.14 0.19 0.22 0.21 0.22 0.28 0.29 0.31 0.41 0.53 0.68 0.76 0.80 0.85 0.91 0.91 0.87 0.86 0.89 0.87 0.84 0.78 0.73
0.86 0.67 0.58 0.59 0.72 0.69 0.72 1.03 1.26 1.13 0.95 0.51 0.16 0.18 0.24 0.22 0.22 0.22 0.19 0.15 0.13 0.13 0.13 0.15 0.16 0.17 0.20 0.22 0.22 0.26 0.33 0.43 0.58 0.65 0.66 0.71 0.84 0.88 0.81 0.78 0.80 0.78 0.73 0.67
0.89 0.80 0.52 0.61 0.84 0.87 0.75 0.92 1.06 0.79 0.48 0.23 0.12 0.15 0.18 0.16 0.16 0.14 0.11 0.09 0.10 0.10 0.09 0.08 0.08 0.08 0.10 0.11 0.13 0.17 0.22 0.27 0.34 0.41 0.47 0.52 0.61 0.71 0.70 0.68 0.68 0.65 0.61 0.61
0.63 0.58 0.36 0.43 0.58 0.67 0.72 0.71 0.60 0.69 0.46 0.28 0.15 0.13 0.13 0.13 0.12 0.10 0.09 0.09 0.10 0.09 0.06 0.05 0.05 0.06 0.05 0.05 0.06 0.09 0.11 0.16 0.22 0.26 0.32 0.39 0.46 0.54 0.59 0.61 0.63 0.63 0.62 0.59
0.54 0.65 0.42 0.45 0.66 0.75 0.71 0.59 0.67 1.01 0.74 0.40 0.16 0.11 0.14 0.14 0.13 0.12 0.11 0.09 0.07 0.06 0.05 0.06 0.07 0.06 0.04 0.03 0.04 0.06 0.08 0.11 0.16 0.19 0.23 0.29 0.37 0.43 0.48 0.52 0.53 0.52 0.52 0.52
0.50 0.77 0.59 0.61 0.77 0.72 0.69 0.77 0.78 0.79 0.59 0.49 0.30 0.16 0.14 0.13 0.12 0.12 0.13 0.10 0.07 0.05 0.05 0.06 0.06 0.04 0.03 0.03 0.04 0.05 0.07 0.09 0.12 0.15 0.19 0.24 0.31 0.36 0.39 0.40 0.41 0.43 0.44 0.45
0.44 0.79 0.68 0.50 0.44 0.48 0.57 0.56 0.66 0.87 0.63 0.49 0.39 0.21 0.12 0.11 0.10 0.11 0.12 0.12 0.10 0.08 0.06 0.05 0.05 0.04 0.04 0.04 0.05 0.06 0.08 0.08 0.10 0.13 0.16 0.20 0.25 0.29 0.31 0.35 0.34 0.36 0.39 0.39
0.45 0.80 0.85 0.63 0.55 0.59 0.65 0.52 0.53 0.77 0.99 0.76 0.56 0.24 0.10 0.09 0.09 0.10 0.12 0.13 0.13 0.12 0.10 0.08 0.07 0.06 0.06 0.07 0.07 0.06 0.07 0.08 0.10 0.12 0.14 0.15 0.17 0.20 0.23 0.27 0.30 0.32 0.37 0.40
0.69 0.85 0.76 0.60 0.55 0.61 0.58 0.46 0.57 1.10 1.30 0.70 0.34 0.16 0.09 0.10 0.13 0.13 0.14 0.15 0.16 0.16 0.14 0.14 0.15 0.12 0.10 0.09 0.06 0.05 0.06 0.07 0.09 0.11 0.13 0.13 0.15 0.17 0.18 0.22 0.24 0.26 0.30 0.34
0.67 0.91 0.66 0.40 0.32 0.49 0.49 0.47 0.57 0.83 0.79 0.71 0.34 0.18 0.14 0.14 0.18 0.18 0.15 0.13 0.14 0.15 0.15 0.14 0.15 0.15 0.13 0.10 0.07 0.05 0.05 0.06 0.08 0.10 0.12 0.13 0.14 0.14 0.17 0.19 0.20 0.22 0.23 0.28
0.51 0.74 0.68 0.46 0.28 0.39 0.45 0.41 0.44 0.49 0.51 0.49 0.36 0.28 0.18 0.17 0.18 0.17 0.14 0.13 0.13 0.13 0.14 0.14 0.13 0.13 0.12 0.11 0.09 0.09 0.08 0.08 0.08 0.10 0.12 0.12 0.13 0.13 0.14 0.17 0.19 0.19 0.21 0.25
0.38 0.59 0.77 0.53 0.32 0.41 0.45 0.39 0.41 0.41 0.37 0.39 0.41 0.32 0.21 0.21 0.21 0.19 0.16 0.13 0.12 0.10 0.09 0.10 0.12 0.12 0.12 0.11 0.10 0.09 0.09 0.09 0.09 0.10 0.11 0.12 0.13 0.15 0.15 0.17 0.22 0.27 0.31 0.34
0.22 0.48 0.74 0.52 0.37 0.49 0.36 0.28 0.30 0.33 0.32 0.33 0.30 0.23 0.18 0.18 0.20 0.20 0.16 0.13 0.10 0.07 0.06 0.06 0.06 0.08 0.08 0.07 0.07 0.07 0.08 0.09 0.10 0.11 0.14 0.16 0.17 0.23 0.28 0.28 0.32 0.38 0.42 0.45
0.10 0.35 0.62 0.50 0.38 0.26 0.19 0.19 0.22 0.29 0.31 0.27 0.19 0.14 0.12 0.13 0.18 0.19 0.16 0.12 0.09 0.07 0.07 0.06 0.06 0.06 0.06 0.07 0.07 0.08 0.09 0.09 0.10 0.12 0.15 0.19 0.21 0.27 0.36 0.38 0.41 0.45 0.50 0.54
0.09 0.23 0.52 0.46 0.39 0.19 0.12 0.07 0.10 0.19 0.30 0.19 0.16 0.15 0.14 0.16 0.20 0.17 0.14 0.12 0.12 0.11 0.09 0.09 0.10 0.10 0.11 0.12 0.13 0.13 0.14 0.17 0.20 0.22 0.25 0.30 0.35 0.41 0.45 0.46 0.45 0.44 0.44 0.44
0.16 0.28 0.40 0.35 0.32 0.08 0.04 0.04 0.07 0.20 0.25 0.11 0.10 0.12 0.15 0.14 0.14 0.13 0.10 0.10 0.13 0.14 0.13 0.13 0.14 0.16 0.18 0.18 0.19 0.21 0.22 0.28 0.34 0.36 0.38 0.39 0.42 0.44 0.44 0.42 0.39 0.35 0.31 0.27
0.07 0.13 0.14 0.17 0.23 0.11 0.05 0.06 0.10 0.13 0.10 0.10 0.11 0.13 0.13 0.13 0.11 0.10 0.12 0.11 0.10 0.10 0.12 0.14 0.16 0.18 0.21 0.24 0.28 0.29 0.32 0.36 0.37 0.37 0.37 0.36 0.35 0.33 0.33 0.31 0.29 0.25 0.22 0.20
0.06 0.07 0.08 0.09 0.10 0.08 0.08 0.07 0.07 0.07 0.07 0.08 0.10 0.11 0.10 0.10 0.11 0.09 0.08 0.08 0.08 0.09 0.11 0.14 0.18 0.21 0.23 0.25 0.28 0.30 0.30 0.29 0.30 0.30 0.28 0.26 0.23 0.22 0.21 0.20 0.18 0.17 0.16 0.15
0.10 0.08 0.09 0.07 0.04 0.04 0.05 0.05 0.05 0.04 0.04 0.03 0.04 0.06 0.09 0.11 0.11 0.10 0.07 0.06 0.07 0.07 0.09 0.11 0.13 0.14 0.16 0.16 0.18 0.20 0.19 0.18 0.18 0.18 0.18 0.17 0.15 0.15 0.15 0.15 0.16 0.15 0.14 0.14
0.12 0.11 0.10 0.08 0.05 0.04 0.05 0.04 0.04 0.03 0.02 0.02 0.02 0.02 0.04 0.06 0.07 0.08 0.07 0.07 0.07 0.07 0.07 0.08 0.08 0.09 0.10 0.10 0.10 0.11 0.10 0.11 0.12 0.13 0.13 0.13 0.14 0.15 0.16 0.17 0.18 0.20 0.19 0.20
0.03 0.06 0.09 0.09 0.06 0.06 0.05 0.04 0.04 0.03 0.03 0.02 0.03 0.03 0.03 0.04 0.05 0.04 0.04 0.04 0.05 0.07 0.07 0.07 0.08 0.09 0.11 0.11 0.10 0.10 0.08 0.08 0.11 0.13 0.13 0.14 0.15 0.15 0.16 0.18 0.19 0.22 0.22 0.23

GEFSCGP_prec_meanprecacc_126.txt.gz
Total_Precipitation_Accumulation
1.48 1.45 1.08 0.63 0.47 0.38 0.37 0.41 0.38 0.34 0.31 0.41 0.43 0.40 0.39 0.38 0.33 0.32 0.34 0.37 0.40 0.46 0.58 0.72 0.85 1.06 1.22 1.35 1.49 1.44 1.49 1.60 1.64 1.65 1.54 1.35 1.15 1.03 0.98 0.89 0.81 0.68 0.56 0.48
1.42 1.09 0.59 0.45 0.47 0.45 0.44 0.45 0.39 0.34 0.31 0.36 0.38 0.36 0.39 0.42 0.38 0.32 0.28 0.29 0.32 0.44 0.49 0.55 0.68 0.87 1.02 1.12 1.19 1.29 1.30 1.40 1.50 1.51 1.48 1.49 1.51 1.35 1.20 1.07 0.93 0.81 0.73 0.66
1.03 0.64 0.45 0.51 0.57 0.59 0.51 0.46 0.38 0.34 0.32 0.37 0.38 0.38 0.36 0.37 0.35 0.32 0.28 0.28 0.31 0.43 0.44 0.44 0.51 0.71 0.81 0.90 0.98 1.06 1.12 1.18 1.23 1.39 1.52 1.56 1.58 1.51 1.26 1.02 0.88 0.88 0.91 0.87
0.89 0.51 0.52 0.64 0.58 0.56 0.57 0.38 0.35 0.33 0.44 0.50 0.37 0.45 0.34 0.32 0.32 0.32 0.29 0.29 0.33 0.39 0.40 0.42 0.45 0.57 0.63 0.69 0.82 0.91 0.99 1.06 1.08 1.22 1.28 1.25 1.13 1.10 1.04 0.99 0.98 1.01 1.02 1.00
0.91 0.57 0.59 0.70 0.51 0.48 0.48 0.37 0.41 0.43 0.47 0.47 0.32 0.37 0.38 0.32 0.37 0.36 0.32 0.31 0.35 0.35 0.34 0.42 0.43 0.45 0.50 0.51 0.58 0.72 0.87 0.91 0.92 0.99 1.07 1.15 1.10 1.05 1.09 1.08 1.00 0.94 0.91 0.95
0.69 0.59 0.64 0.60 0.46 0.47 0.48 0.56 0.61 0.60 0.70 0.66 0.29 0.29 0.33 0.33 0.39 0.37 0.30 0.31 0.32 0.33 0.36 0.38 0.32 0.34 0.44 0.41 0.40 0.52 0.64 0.80 0.87 0.90 0.96 1.03 1.01 0.96 0.96 0.99 0.98 0.96 0.91 0.85
0.89 0.70 0.61 0.62 0.76 0.73 0.75 1.07 1.31 1.17 1.00 0.55 0.19 0.21 0.31 0.31 0.32 0.35 0.33 0.28 0.27 0.29 0.30 0.30 0.29 0.34 0.39 0.36 0.34 0.40 0.48 0.61 0.73 0.77 0.78 0.86 0.96 0.98 0.90 0.88 0.91 0.91 0.88 0.84
0.92 0.82 0.54 0.63 0.88 0.91 0.77 0.95 1.09 0.82 0.51 0.26 0.15 0.20 0.26 0.25 0.25 0.25 0.20 0.19 0.22 0.23 0.22 0.22 0.23 0.24 0.23 0.21 0.24 0.30 0.36 0.41 0.46 0.51 0.57 0.65 0.75 0.82 0.79 0.76 0.76 0.75 0.71 0.73
0.66 0.60 0.37 0.44 0.59 0.70 0.74 0.73 0.62 0.72 0.47 0.29 0.18 0.17 0.19 0.20 0.18 0.16 0.15 0.15 0.17 0.17 0.16 0.16 0.16 0.16 0.13 0.12 0.13 0.16 0.19 0.25 0.30 0.32 0.37 0.45 0.53 0.62 0.68 0.69 0.70 0.69 0.69 0.66
0.57 0.68 0.43 0.47 0.68 0.77 0.73 0.61 0.68 1.03 0.75 0.41 0.18 0.13 0.19 0.20 0.19 0.17 0.16 0.14 0.12 0.12 0.13 0.15 0.15 0.13 0.10 0.07 0.07 0.09 0.11 0.16 0.20 0.23 0.27 0.32 0.41 0.47 0.53 0.58 0.60 0.59 0.59 0.59
0.52 0.78 0.60 0.62 0.79 0.73 0.71 0.79 0.80 0.80 0.60 0.50 0.31 0.18 0.18 0.18 0.17 0.17 0.16 0.13 0.10 0.10 0.11 0.12 0.10 0.08 0.08 0.06 0.07 0.08 0.10 0.13 0.16 0.18 0.22 0.26 0.34 0.39 0.42 0.44 0.46 0.49 0.51 0.52
0.45 0.81 0.70 0.51 0.44 0.48 0.58 0.58 0.68 0.89 0.64 0.49 0.40 0.23 0.15 0.14 0.14 0.14 0.14 0.14 0.12 0.12 0.11 0.09 0.07 0.05 0.06 0.07 0.08 0.09 0.11 0.13 0.15 0.17 0.20 0.24 0.29 0.33 0.36 0.40 0.39 0.40 0.45 0.45
0.46 0.82 0.86 0.63 0.56 0.60 0.66 0.53 0.54 0.79 1.00 0.78 0.57 0.26 0.12 0.11 0.11 0.12 0.14 0.15 0.15 0.15 0.13 0.11 0.09 0.07 0.07 0.08 0.09 0.09 0.10 0.13 0.15 0.16 0.18 0.19 0.20 0.23 0.27 0.33 0.37 0.38 0.44 0.47
0.70 0.86 0.77 0.60 0.55 0.61 0.58 0.47 0.58 1.11 1.31 0.71 0.35 0.17 0.10 0.10 0.15 0.15 0.15 0.16 0.18 0.19 0.17 0.16 0.16 0.13 0.10 0.10 0.08 0.07 0.08 0.10 0.13 0.14 0.15 0.16 0.17 0.20 0.22 0.25 0.29 0.33 0.37 0.43
0.68 0.91 0.66 0.40 0.32 0.49 0.50 0.47 0.58 0.84 0.80 0.72 0.34 0.19 0.14 0.15 0.20 0.19 0.16 0.14 0.15 0.16 0.16 0.16 0.17 0.18 0.14 0.11 0.09 0.07 0.07 0.09 0.11 0.13 0.15 0.15 0.16 0.17 0.20 0.22 0.25 0.28 0.31 0.36
0.51 0.74 0.69 0.46 0.29 0.40 0.45 0.42 0.44 0.49 0.51 0.50 0.36 0.28 0.19 0.19 0.20 0.18 0.15 0.13 0.13 0.13 0.15 0.16 0.15 0.17 0.14 0.13 0.11 0.10 0.10 0.09 0.11 0.14 0.14 0.15 0.17 0.17 0.18 0.21 0.25 0.25 0.28 0.33
0.38 0.60 0.78 0.53 0.32 0.41 0.46 0.41 0.42 0.42 0.38 0.40 0.42 0.33 0.24 0.24 0.22 0.20 0.16 0.13 0.12 0.10 0.10 0.13 0.14 0.15 0.14 0.12 0.11 0.10 0.10 0.10 0.10 0.13 0.14 0.15 0.17 0.19 0.19 0.22 0.27 0.33 0.38 0.43
0.23 0.48 0.76 0.52 0.38 0.50 0.37 0.29 0.31 0.34 0.33 0.35 0.33 0.25 0.21 0.20 0.21 0.21 0.16 0.13 0.10 0.07 0.06 0.07 0.09 0.10 0.10 0.09 0.09 0.09 0.09 0.10 0.12 0.14 0.18 0.20 0.21 0.28 0.33 0.33 0.36 0.43 0.49 0.53
0.10 0.36 0.63 0.51 0.39 0.27 0.20 0.19 0.22 0.30 0.33 0.29 0.22 0.16 0.14 0.15 0.20 0.21 0.17 0.12 0.09 0.07 0.07 0.07 0.08 0.10 0.09 0.10 0.10 0.10 0.11 0.13 0.14 0.17 0.21 0.24 0.26 0.33 0.42 0.44 0.46 0.50 0.54 0.58
0.09 0.24 0.53 0.47 0.40 0.20 0.12 0.08 0.10 0.19 0.31 0.21 0.19 0.17 0.17 0.18 0.22 0.20 0.16 0.14 0.13 0.12 0.09 0.10 0.10 0.11 0.13 0.16 0.16 0.17 0.18 0.23 0.25 0.26 0.30 0.35 0.40 0.46 0.49 0.50 0.49 0.47 0.46 0.47
0.16 0.28 0.41 0.36 0.33 0.09 0.05 0.04 0.07 0.20 0.25 0.13 0.13 0.14 0.16 0.16 0.15 0.15 0.11 0.11 0.13 0.15 0.14 0.14 0.15 0.17 0.19 0.19 0.20 0.22 0.24 0.32 0.37 0.40 0.41 0.42 0.45 0.48 0.47 0.45 0.42 0.37 0.32 0.29
0.08 0.13 0.15 0.18 0.24 0.12 0.06 0.06 0.10 0.14 0.10 0.11 0.13 0.15 0.15 0.14 0.11 0.11 0.12 0.11 0.10 0.11 0.13 0.15 0.17 0.19 0.22 0.25 0.29 0.30 0.32 0.37 0.40 0.40 0.39 0.38 0.36 0.35 0.36 0.35 0.33 0.28 0.24 0.22
0.06 0.08 0.09 0.10 0.11 0.09 0.08 0.08 0.08 0.07 0.08 0.08 0.10 0.12 0.11 0.11 0.12 0.10 0.08 0.09 0.09 0.10 0.12 0.15 0.19 0.22 0.25 0.26 0.29 0.31 0.31 0.30 0.31 0.32 0.30 0.27 0.24 0.23 0.23 0.23 0.23 0.21 0.19 0.18
0.10 0.08 0.09 0.07 0.05 0.04 0.05 0.05 0.05 0.05 0.04 0.03 0.04 0.06 0.09 0.12 0.12 0.11 0.07 0.07 0.07 0.08 0.09 0.11 0.13 0.15 0.17 0.17 0.19 0.20 0.19 0.19 0.19 0.19 0.19 0.18 0.16 0.16 0.16 0.17 0.19 0.19 0.18 0.17
0.12 0.11 0.10 0.08 0.05 0.05 0.05 0.04 0.04 0.03 0.02 0.02 0.02 0.02 0.04 0.06 0.07 0.08 0.08 0.07 0.07 0.07 0.08 0.08 0.09 0.09 0.10 0.11 0.11 0.11 0.10 0.11 0.12 0.13 0.13 0.14 0.15 0.16 0.17 0.18 0.20 0.23 0.23 0.24
0.03 0.06 0.09 0.09 0.06 0.06 0.05 0.04 0.04 0.03 0.03 0.02 0.03 0.03 0.03 0.04 0.05 0.04 0.04 0.04 0.05 0.07 0.07 0.07 0.08 0.09 0.11 0.11 0.10 0.10 0.08 0.08 0.11 0.13 0.14 0.14 0.15 0.16 0.17 0.19 0.20 0.24 0.25 0.27

GEFSCGP_prec_meanprecacc_132.txt.gz
Total_Precipitation_Accumulation
1.57 1.53 1.13 0.66 0.50 0.40 0.38 0.43 0.40 0.36 0.33 0.44 0.46 0.46 0.46 0.42 0.35 0.34 0.36 0.39 0.42 0.48 0.60 0.75 0.88 1.11 1.31 1.45 1.61 1.61 1.66 1.75 1.77 1.76 1.63 1.42 1.20 1.09 1.04 0.97 0.92 0.81 0.68 0.58
1.47 1.13 0.63 0.49 0.50 0.48 0.46 0.48 0.41 0.37 0.33 0.39 0.41 0.41 0.45 0.48 0.43 0.35 0.31 0.32 0.35 0.47 0.52 0.59 0.72 0.92 1.09 1.20 1.31 1.42 1.46 1.56 1.62 1.59 1.55 1.54 1.56 1.40 1.25 1.13 1.01 0.92 0.87 0.80
1.07 0.67 0.46 0.53 0.59 0.61 0.53 0.48 0.41 0.38 0.35 0.40 0.40 0.43 0.42 0.43 0.44 0.39 0.34 0.33 0.35 0.47 0.48 0.51 0.58 0.78 0.88 0.97 1.09 1.17 1.27 1.35 1.36 1.49 1.59 1.62 1.63 1.56 1.31 1.08 0.94 0.96 1.01 1.00
0.93 0.53 0.53 0.66 0.60 0.58 0.60 0.40 0.39 0.38 0.49 0.56 0.40 0.51 0.40 0.38 0.41 0.41 0.37 0.36 0.39 0.45 0.47 0.51 0.55 0.66 0.72 0.77 0.91 1.01 1.10 1.20 1.22 1.34 1.37 1.31 1.19 1.16 1.09 1.03 1.02 1.07 1.10 1.10
0.94 0.58 0.60 0.72 0.53 0.50 0.51 0.39 0.46 0.48 0.51 0.51 0.34 0.42 0.43 0.38 0.46 0.47 0.42 0.43 0.45 0.43 0.41 0.50 0.54 0.56 0.61 0.62 0.67 0.81 0.96 1.02 1.04 1.10 1.16 1.23 1.17 1.11 1.13 1.12 1.04 0.99 0.97 1.02
0.71 0.60 0.66 0.62 0.47 0.49 0.50 0.60 0.66 0.65 0.75 0.70 0.31 0.33 0.39 0.40 0.49 0.48 0.39 0.41 0.43 0.42 0.44 0.46 0.42 0.46 0.57 0.53 0.50 0.60 0.73 0.90 0.97 1.00 1.05 1.10 1.08 1.02 1.00 1.04 1.02 1.01 0.95 0.90
0.90 0.71 0.62 0.64 0.78 0.76 0.78 1.11 1.37 1.22 1.05 0.58 0.21 0.25 0.37 0.38 0.41 0.44 0.41 0.36 0.37 0.39 0.39 0.40 0.39 0.46 0.50 0.47 0.44 0.47 0.54 0.69 0.82 0.85 0.87 0.93 1.03 1.03 0.94 0.92 0.96 0.95 0.91 0.87
0.94 0.84 0.56 0.64 0.90 0.94 0.80 0.97 1.12 0.84 0.53 0.28 0.17 0.23 0.31 0.31 0.33 0.33 0.28 0.27 0.31 0.32 0.30 0.31 0.32 0.34 0.32 0.30 0.34 0.40 0.45 0.49 0.55 0.60 0.67 0.76 0.85 0.92 0.86 0.80 0.80 0.78 0.74 0.76
0.68 0.62 0.39 0.45 0.60 0.72 0.77 0.75 0.63 0.73 0.49 0.31 0.20 0.19 0.23 0.23 0.23 0.23 0.22 0.24 0.26 0.25 0.22 0.22 0.23 0.23 0.20 0.21 0.24 0.28 0.31 0.34 0.38 0.40 0.46 0.54 0.61 0.71 0.79 0.77 0.76 0.73 0.72 0.68
0.58 0.70 0.45 0.48 0.70 0.79 0.76 0.63 0.70 1.06 0.77 0.42 0.19 0.15 0.22 0.23 0.23 0.23 0.22 0.21 0.20 0.18 0.18 0.19 0.20 0.19 0.15 0.14 0.15 0.16 0.19 0.25 0.28 0.30 0.33 0.38 0.47 0.54 0.63 0.67 0.67 0.65 0.63 0.62
0.53 0.80 0.62 0.63 0.80 0.75 0.72 0.81 0.82 0.82 0.61 0.51 0.32 0.20 0.19 0.21 0.22 0.22 0.20 0.18 0.16 0.15 0.16 0.16 0.16 0.14 0.14 0.12 0.12 0.14 0.18 0.22 0.24 0.25 0.28 0.31 0.37 0.43 0.48 0.51 0.53 0.54 0.55 0.56
0.46 0.82 0.71 0.52 0.45 0.49 0.59 0.59 0.70 0.91 0.65 0.50 0.41 0.24 0.16 0.16 0.18 0.19 0.18 0.17 0.16 0.16 0.15 0.13 0.11 0.11 0.12 0.13 0.14 0.15 0.19 0.21 0.23 0.24 0.26 0.28 0.32 0.36 0.39 0.43 0.43 0.45 0.48 0.48
0.47 0.82 0.87 0.64 0.56 0.61 0.67 0.54 0.55 0.81 1.02 0.78 0.57 0.26 0.12 0.12 0.13 0.15 0.16 0.17 0.17 0.18 0.18 0.16 0.12 0.10 0.11 0.13 0.14 0.14 0.17 0.20 0.21 0.22 0.23 0.23 0.23 0.25 0.28 0.34 0.38 0.40 0.46 0.50
0.70 0.86 0.77 0.61 0.55 0.62 0.59 0.47 0.59 1.13 1.33 0.72 0.35 0.17 0.10 0.11 0.16 0.16 0.17 0.17 0.19 0.21 0.20 0.20 0.20 0.15 0.14 0.13 0.11 0.11 0.12 0.15 0.18 0.19 0.20 0.19 0.20 0.21 0.23 0.26 0.30 0.34 0.39 0.45
0.68 0.91 0.66 0.40 0.32 0.49 0.50 0.48 0.58 0.85 0.81 0.73 0.35 0.19 0.14 0.16 0.22 0.20 0.17 0.15 0.16 0.18 0.19 0.20 0.21 0.20 0.17 0.14 0.12 0.10 0.10 0.12 0.14 0.16 0.17 0.18 0.19 0.20 0.22 0.24 0.27 0.30 0.34 0.39
0.51 0.74 0.69 0.46 0.29 0.40 0.46 0.43 0.45 0.50 0.52 0.51 0.37 0.29 0.19 0.19 0.21 0.19 0.16 0.14 0.14 0.15 0.17 0.18 0.17 0.18 0.16 0.15 0.14 0.13 0.13 0.12 0.14 0.16 0.16 0.16 0.18 0.18 0.21 0.24 0.27 0.28 0.32 0.38
0.38 0.60 0.78 0.53 0.32 0.41 0.47 0.41 0.43 0.42 0.39 0.41 0.43 0.34 0.25 0.25 0.23 0.20 0.17 0.14 0.13 0.11 0.11 0.14 0.15 0.16 0.15 0.14 0.13 0.12 0.13 0.13 0.14 0.15 0.16 0.17 0.19 0.21 0.22 0.26 0.30 0.36 0.41 0.49
0.23 0.49 0.76 0.53 0.38 0.50 0.37 0.30 0.32 0.35 0.34 0.36 0.34 0.26 0.22 0.22 0.22 0.21 0.16 0.13 0.10 0.08 0.06 0.07 0.10 0.10 0.10 0.09 0.10 0.11 0.10 0.12 0.13 0.16 0.20 0.22 0.23 0.30 0.36 0.36 0.39 0.46 0.52 0.59
0.11 0.36 0.64 0.52 0.39 0.27 0.20 0.20 0.23 0.31 0.34 0.30 0.23 0.17 0.15 0.17 0.21 0.21 0.17 0.13 0.09 0.07 0.07 0.07 0.08 0.10 0.10 0.10 0.11 0.12 0.13 0.14 0.15 0.18 0.23 0.26 0.28 0.37 0.46 0.46 0.48 0.52 0.57 0.63
0.09 0.24 0.55 0.48 0.41 0.21 0.13 0.08 0.10 0.20 0.32 0.22 0.19 0.18 0.18 0.19 0.23 0.21 0.16 0.14 0.13 0.12 0.10 0.10 0.11 0.12 0.14 0.16 0.17 0.17 0.19 0.24 0.27 0.28 0.32 0.37 0.43 0.50 0.54 0.54 0.53 0.50 0.48 0.50
0.16 0.29 0.42 0.37 0.34 0.09 0.05 0.05 0.07 0.21 0.26 0.13 0.13 0.15 0.18 0.18 0.17 0.16 0.12 0.11 0.14 0.15 0.15 0.14 0.15 0.17 0.19 0.19 0.21 0.22 0.25 0.33 0.39 0.42 0.45 0.45 0.49 0.51 0.51 0.49 0.45 0.40 0.34 0.32
0.08 0.14 0.15 0.18 0.25 0.13 0.06 0.07 0.11 0.15 0.11 0.11 0.14 0.16 0.16 0.16 0.13 0.12 0.14 0.12 0.11 0.11 0.13 0.15 0.17 0.19 0.22 0.25 0.29 0.30 0.32 0.38 0.40 0.42 0.42 0.40 0.38 0.38 0.39 0.38 0.36 0.31 0.27 0.25
0.06 0.08 0.09 0.10 0.11 0.09 0.08 0.08 0.08 0.07 0.08 0.08 0.11 0.13 0.13 0.13 0.13 0.11 0.10 0.10 0.10 0.10 0.12 0.15 0.19 0.22 0.25 0.26 0.29 0.31 0.31 0.30 0.31 0.32 0.32 0.29 0.25 0.24 0.25 0.25 0.25 0.25 0.23 0.21
0.10 0.08 0.09 0.07 0.05 0.04 0.05 0.05 0.06 0.05 0.04 0.03 0.04 0.07 0.11 0.13 0.13 0.12 0.09 0.08 0.08 0.08 0.09 0.12 0.13 0.15 0.17 0.17 0.19 0.21 0.20 0.19 0.19 0.19 0.21 0.21 0.19 0.18 0.18 0.19 0.21 0.21 0.21 0.20
0.12 0.11 0.10 0.08 0.05 0.05 0.05 0.04 0.04 0.03 0.02 0.02 0.02 0.03 0.05 0.08 0.08 0.09 0.09 0.08 0.08 0.08 0.08 0.09 0.09 0.09 0.11 0.11 0.11 0.11 0.11 0.11 0.13 0.14 0.15 0.16 0.17 0.18 0.18 0.20 0.22 0.24 0.25 0.27
0.03 0.06 0.09 0.09 0.06 0.06 0.05 0.04 0.04 0.03 0.03 0.02 0.03 0.03 0.04 0.05 0.05 0.05 0.05 0.05 0.06 0.07 0.08 0.08 0.08 0.09 0.12 0.11 0.10 0.10 0.09 0.09 0.11 0.13 0.14 0.16 0.17 0.17 0.18 0.20 0.21 0.25 0.26 0.28

GEFSCGP_prec_meanprecacc_138.txt.gz
Total_Precipitation_Accumulation
1.65 1.58 1.18 0.69 0.53 0.43 0.40 0.44 0.41 0.37 0.34 0.44 0.46 0.47 0.50 0.46 0.38 0.36 0.38 0.42 0.45 0.51 0.64 0.79 0.90 1.12 1.31 1.46 1.62 1.63 1.74 1.84 1.91 1.93 1.78 1.53 1.32 1.26 1.20 1.08 1.03 0.92 0.78 0.68
1.53 1.17 0.66 0.52 0.52 0.50 0.48 0.50 0.43 0.38 0.34 0.39 0.41 0.42 0.48 0.52 0.46 0.37 0.33 0.34 0.37 0.49 0.55 0.63 0.75 0.94 1.10 1.21 1.32 1.46 1.55 1.66 1.75 1.77 1.72 1.64 1.65 1.52 1.38 1.23 1.11 1.03 0.97 0.89
1.11 0.70 0.49 0.55 0.61 0.63 0.55 0.50 0.42 0.39 0.36 0.40 0.41 0.44 0.45 0.46 0.46 0.41 0.37 0.36 0.38 0.49 0.50 0.54 0.61 0.80 0.90 0.99 1.11 1.22 1.36 1.45 1.48 1.65 1.76 1.75 1.75 1.67 1.43 1.18 1.03 1.05 1.12 1.10
0.95 0.55 0.56 0.68 0.62 0.60 0.62 0.42 0.40 0.39 0.50 0.58 0.42 0.53 0.43 0.41 0.43 0.44 0.42 0.41 0.45 0.49 0.51 0.55 0.59 0.70 0.76 0.80 0.95 1.07 1.20 1.31 1.34 1.48 1.52 1.45 1.31 1.27 1.19 1.11 1.09 1.13 1.17 1.18
0.97 0.60 0.62 0.74 0.55 0.53 0.53 0.40 0.47 0.50 0.53 0.54 0.36 0.45 0.46 0.40 0.49 0.50 0.46 0.47 0.50 0.48 0.47 0.56 0.59 0.62 0.67 0.67 0.73 0.87 1.06 1.15 1.18 1.24 1.29 1.36 1.30 1.23 1.23 1.20 1.10 1.04 1.03 1.09
0.72 0.61 0.67 0.64 0.49 0.51 0.53 0.62 0.69 0.69 0.79 0.74 0.32 0.35 0.42 0.42 0.51 0.50 0.43 0.46 0.47 0.46 0.49 0.50 0.48 0.52 0.63 0.60 0.58 0.68 0.83 1.02 1.10 1.13 1.17 1.22 1.20 1.14 1.10 1.12 1.09 1.07 1.02 0.97
0.92 0.72 0.63 0.65 0.80 0.78 0.82 1.16 1.44 1.28 1.10 0.61 0.23 0.27 0.40 0.40 0.43 0.47 0.44 0.40 0.41 0.43 0.43 0.45 0.44 0.52 0.57 0.57 0.53 0.54 0.62 0.79 0.93 0.97 0.99 1.04 1.13 1.13 1.04 1.02 1.04 1.04 1.01 0.96
0.96 0.86 0.57 0.65 0.92 0.97 0.83 1.00 1.17 0.89 0.58 0.31 0.19 0.26 0.33 0.34 0.36 0.36 0.32 0.31 0.35 0.38 0.37 0.38 0.40 0.42 0.40 0.40 0.44 0.48 0.53 0.59 0.65 0.70 0.78 0.87 0.95 1.02 0.95 0.90 0.90 0.88 0.84 0.85
0.69 0.64 0.39 0.46 0.61 0.73 0.79 0.77 0.65 0.75 0.50 0.33 0.21 0.20 0.24 0.25 0.26 0.26 0.26 0.27 0.31 0.31 0.29 0.29 0.29 0.29 0.27 0.27 0.32 0.36 0.39 0.43 0.48 0.50 0.56 0.68 0.73 0.81 0.88 0.88 0.86 0.84 0.81 0.76
0.60 0.72 0.45 0.49 0.71 0.79 0.77 0.65 0.72 1.08 0.80 0.45 0.20 0.16 0.23 0.24 0.24 0.26 0.26 0.25 0.24 0.23 0.24 0.25 0.26 0.25 0.21 0.20 0.21 0.23 0.27 0.33 0.38 0.39 0.42 0.50 0.58 0.63 0.70 0.76 0.77 0.72 0.70 0.68
0.54 0.81 0.63 0.64 0.81 0.76 0.74 0.82 0.84 0.84 0.63 0.54 0.34 0.22 0.20 0.22 0.23 0.24 0.24 0.22 0.20 0.19 0.21 0.21 0.20 0.18 0.18 0.16 0.16 0.19 0.23 0.28 0.30 0.31 0.33 0.37 0.43 0.49 0.53 0.58 0.61 0.60 0.60 0.60
0.47 0.83 0.72 0.52 0.45 0.49 0.60 0.61 0.72 0.95 0.68 0.52 0.43 0.26 0.17 0.18 0.19 0.21 0.21 0.21 0.21 0.21 0.21 0.17 0.14 0.13 0.15 0.16 0.17 0.18 0.22 0.25 0.26 0.27 0.28 0.32 0.36 0.39 0.42 0.47 0.47 0.49 0.52 0.51
0.48 0.83 0.88 0.64 0.57 0.61 0.68 0.55 0.57 0.83 1.04 0.80 0.59 0.27 0.13 0.13 0.14 0.16 0.18 0.19 0.22 0.22 0.22 0.20 0.15 0.12 0.13 0.15 0.17 0.17 0.20 0.23 0.24 0.25 0.25 0.25 0.27 0.29 0.31 0.37 0.41 0.44 0.49 0.53
0.71 0.87 0.78 0.62 0.55 0.62 0.59 0.48 0.60 1.15 1.36 0.74 0.36 0.17 0.10 0.12 0.17 0.18 0.18 0.19 0.22 0.24 0.22 0.22 0.23 0.18 0.16 0.16 0.14 0.13 0.15 0.19 0.22 0.22 0.23 0.22 0.23 0.26 0.26 0.28 0.32 0.36 0.41 0.46
0.69 0.92 0.66 0.40 0.32 0.49 0.50 0.48 0.58 0.86 0.82 0.75 0.35 0.19 0.15 0.17 0.23 0.22 0.19 0.17 0.18 0.20 0.21 0.22 0.23 0.23 0.20 0.17 0.15 0.13 0.13 0.15 0.18 0.19 0.20 0.21 0.23 0.23 0.25 0.26 0.29 0.31 0.34 0.40
0.52 0.75 0.69 0.46 0.29 0.40 0.46 0.43 0.45 0.50 0.53 0.52 0.37 0.29 0.19 0.20 0.21 0.21 0.18 0.16 0.16 0.16 0.19 0.20 0.19 0.21 0.19 0.19 0.18 0.16 0.15 0.15 0.17 0.18 0.18 0.19 0.21 0.22 0.23 0.27 0.29 0.30 0.33 0.39
0.39 0.61 0.79 0.53 0.32 0.42 0.47 0.41 0.44 0.43 0.40 0.42 0.44 0.34 0.25 0.25 0.23 0.22 0.18 0.15 0.14 0.12 0.12 0.15 0.16 0.18 0.18 0.17 0.16 0.15 0.15 0.15 0.16 0.17 0.17 0.19 0.21 0.24 0.25 0.28 0.32 0.38 0.43 0.50
0.24 0.50 0.78 0.53 0.38 0.50 0.37 0.30 0.32 0.36 0.34 0.37 0.35 0.27 0.23 0.23 0.23 0.21 0.17 0.14 0.11 0.09 0.07 0.08 0.11 0.12 0.12 0.11 0.12 0.13 0.12 0.13 0.15 0.17 0.21 0.23 0.24 0.31 0.37 0.38 0.41 0.48 0.55 0.61
0.11 0.37 0.66 0.53 0.40 0.27 0.20 0.20 0.23 0.31 0.34 0.31 0.23 0.17 0.16 0.17 0.21 0.21 0.17 0.13 0.10 0.08 0.08 0.07 0.08 0.10 0.10 0.11 0.12 0.13 0.14 0.15 0.16 0.19 0.24 0.27 0.28 0.37 0.46 0.47 0.49 0.54 0.59 0.65
0.09 0.25 0.57 0.49 0.42 0.21 0.13 0.08 0.10 0.20 0.32 0.22 0.20 0.18 0.18 0.20 0.24 0.21 0.16 0.14 0.13 0.12 0.10 0.10 0.11 0.12 0.14 0.16 0.17 0.18 0.21 0.26 0.28 0.29 0.33 0.38 0.44 0.51 0.54 0.55 0.54 0.51 0.50 0.52
0.17 0.30 0.44 0.39 0.35 0.10 0.05 0.05 0.07 0.21 0.27 0.13 0.14 0.16 0.18 0.19 0.18 0.17 0.12 0.11 0.14 0.15 0.15 0.14 0.15 0.17 0.19 0.19 0.21 0.23 0.26 0.35 0.40 0.43 0.45 0.46 0.49 0.52 0.51 0.50 0.46 0.41 0.36 0.34
0.08 0.14 0.16 0.19 0.26 0.13 0.06 0.07 0.11 0.15 0.11 0.11 0.14 0.16 0.17 0.17 0.14 0.13 0.14 0.12 0.11 0.11 0.13 0.15 0.18 0.20 0.23 0.25 0.29 0.31 0.33 0.38 0.41 0.42 0.42 0.41 0.39 0.38 0.40 0.39 0.37 0.32 0.29 0.26
0.06 0.08 0.09 0.10 0.11 0.09 0.08 0.08 0.08 0.07 0.08 0.08 0.11 0.13 0.13 0.14 0.14 0.12 0.11 0.11 0.10 0.11 0.12 0.15 0.19 0.23 0.27 0.28 0.30 0.32 0.32 0.31 0.32 0.33 0.32 0.30 0.26 0.24 0.25 0.26 0.26 0.26 0.24 0.23
0.10 0.08 0.09 0.07 0.05 0.04 0.06 0.05 0.06 0.05 0.04 0.04 0.05 0.07 0.11 0.14 0.14 0.13 0.11 0.10 0.08 0.09 0.10 0.12 0.14 0.16 0.18 0.19 0.21 0.22 0.21 0.20 0.20 0.20 0.21 0.21 0.19 0.18 0.18 0.19 0.21 0.22 0.23 0.22
0.12 0.11 0.10 0.08 0.05 0.05 0.05 0.04 0.04 0.03 0.02 0.02 0.02 0.03 0.06 0.08 0.08 0.10 0.10 0.09 0.08 0.08 0.08 0.09 0.09 0.09 0.11 0.11 0.12 0.12 0.12 0.13 0.14 0.14 0.15 0.16 0.17 0.18 0.19 0.20 0.22 0.25 0.26 0.29
0.04 0.06 0.10 0.10 0.06 0.06 0.05 0.04 0.04 0.04 0.03 0.03 0.03 0.03 0.04 0.05 0.06 0.05 0.06 0.06 0.06 0.07 0.08 0.08 0.08 0.09 0.12 0.11 0.10 0.10 0.09 0.09 0.11 0.13 0.14 0.16 0.17 0.17 0.18 0.20 0.22 0.26 0.27 0.30

GEFSCGP_prec_meanprecacc_144.txt.gz
Total_Precipitation_Accumulation
1.70 1.63 1.20 0.71 0.54 0.43 0.41 0.45 0.41 0.37 0.34 0.44 0.46 0.47 0.50 0.46 0.39 0.36 0.39 0.43 0.47 0.54 0.67 0.82 0.93 1.13 1.32 1.46 1.62 1.64 1.74 1.85 1.92 1.95 1.81 1.60 1.44 1.37 1.30 1.19 1.15 1.07 0.96 0.84
1.58 1.22 0.68 0.53 0.53 0.50 0.48 0.51 0.44 0.38 0.34 0.40 0.42 0.42 0.48 0.52 0.46 0.38 0.34 0.35 0.39 0.51 0.57 0.65 0.77 0.96 1.11 1.22 1.33 1.46 1.55 1.66 1.76 1.79 1.76 1.72 1.76 1.64 1.50 1.36 1.25 1.19 1.14 1.04
1.15 0.75 0.51 0.56 0.62 0.64 0.56 0.52 0.45 0.41 0.37 0.41 0.42 0.44 0.45 0.47 0.47 0.44 0.39 0.38 0.41 0.52 0.53 0.56 0.63 0.82 0.92 1.00 1.12 1.22 1.36 1.46 1.49 1.67 1.82 1.84 1.86 1.78 1.55 1.33 1.19 1.21 1.29 1.27
0.97 0.58 0.58 0.69 0.63 0.61 0.63 0.42 0.41 0.40 0.52 0.59 0.43 0.54 0.44 0.41 0.44 0.47 0.45 0.45 0.51 0.55 0.58 0.60 0.63 0.74 0.79 0.82 0.96 1.08 1.21 1.31 1.35 1.50 1.58 1.53 1.41 1.36 1.28 1.23 1.26 1.29 1.32 1.35
0.99 0.62 0.65 0.76 0.56 0.54 0.54 0.41 0.47 0.50 0.56 0.57 0.38 0.46 0.46 0.40 0.49 0.52 0.49 0.51 0.56 0.54 0.53 0.60 0.62 0.66 0.70 0.70 0.75 0.89 1.08 1.16 1.20 1.27 1.34 1.43 1.38 1.31 1.31 1.29 1.25 1.20 1.17 1.25
0.74 0.63 0.70 0.66 0.49 0.52 0.54 0.63 0.70 0.70 0.81 0.78 0.35 0.37 0.43 0.43 0.51 0.51 0.44 0.48 0.50 0.50 0.53 0.55 0.52 0.55 0.65 0.63 0.60 0.71 0.85 1.05 1.13 1.16 1.22 1.29 1.28 1.21 1.19 1.20 1.20 1.22 1.15 1.09
0.93 0.73 0.65 0.66 0.81 0.79 0.83 1.19 1.46 1.30 1.12 0.63 0.23 0.28 0.41 0.41 0.44 0.48 0.46 0.43 0.44 0.47 0.48 0.50 0.50 0.56 0.61 0.59 0.55 0.56 0.65 0.83 0.99 1.02 1.03 1.09 1.19 1.19 1.10 1.09 1.13 1.15 1.12 1.05
0.97 0.86 0.58 0.66 0.93 0.98 0.85 1.03 1.19 0.91 0.59 0.32 0.19 0.26 0.34 0.34 0.37 0.37 0.33 0.32 0.37 0.41 0.41 0.44 0.46 0.49 0.46 0.46 0.48 0.51 0.57 0.64 0.71 0.76 0.83 0.91 0.99 1.07 1.02 0.98 0.98 0.97 0.94 0.95
0.70 0.64 0.40 0.47 0.62 0.74 0.81 0.79 0.66 0.76 0.51 0.34 0.21 0.21 0.24 0.25 0.26 0.27 0.27 0.28 0.32 0.32 0.31 0.32 0.34 0.35 0.32 0.33 0.37 0.42 0.45 0.49 0.55 0.58 0.62 0.73 0.77 0.86 0.96 0.97 0.95 0.93 0.90 0.87
0.61 0.73 0.47 0.50 0.71 0.80 0.78 0.66 0.74 1.10 0.81 0.45 0.21 0.17 0.24 0.25 0.24 0.26 0.26 0.26 0.25 0.24 0.25 0.27 0.28 0.28 0.25 0.24 0.26 0.28 0.33 0.43 0.48 0.46 0.50 0.57 0.64 0.70 0.77 0.84 0.86 0.81 0.78 0.75
0.55 0.82 0.64 0.65 0.81 0.76 0.75 0.83 0.85 0.85 0.64 0.55 0.35 0.23 0.21 0.22 0.23 0.25 0.24 0.22 0.21 0.20 0.23 0.23 0.22 0.21 0.21 0.19 0.19 0.22 0.27 0.34 0.38 0.39 0.41 0.44 0.50 0.56 0.60 0.65 0.69 0.67 0.67 0.67
0.47 0.83 0.73 0.52 0.46 0.49 0.60 0.62 0.74 0.96 0.69 0.53 0.44 0.27 0.18 0.18 0.19 0.21 0.21 0.21 0.22 0.22 0.23 0.20 0.17 0.16 0.17 0.18 0.19 0.20 0.24 0.28 0.30 0.32 0.34 0.37 0.40 0.42 0.47 0.53 0.54 0.55 0.57 0.56
0.48 0.84 0.89 0.65 0.57 0.61 0.68 0.56 0.57 0.84 1.06 0.81 0.61 0.28 0.13 0.13 0.14 0.17 0.18 0.20 0.22 0.23 0.23 0.21 0.17 0.15 0.16 0.17 0.18 0.18 0.21 0.25 0.27 0.28 0.28 0.29 0.30 0.32 0.34 0.40 0.46 0.49 0.54 0.58
0.72 0.88 0.78 0.62 0.56 0.62 0.59 0.48 0.60 1.16 1.38 0.74 0.36 0.18 0.10 0.12 0.17 0.18 0.18 0.19 0.23 0.24 0.23 0.23 0.25 0.20 0.17 0.17 0.15 0.15 0.17 0.21 0.24 0.24 0.24 0.24 0.26 0.28 0.29 0.31 0.35 0.40 0.45 0.52
0.69 0.92 0.66 0.40 0.32 0.49 0.50 0.48 0.59 0.87 0.83 0.76 0.36 0.19 0.15 0.17 0.23 0.22 0.20 0.17 0.19 0.20 0.22 0.23 0.24 0.24 0.21 0.18 0.16 0.15 0.15 0.16 0.20 0.21 0.21 0.22 0.25 0.26 0.28 0.29 0.32 0.34 0.37 0.44
0.52 0.75 0.69 0.47 0.29 0.40 0.46 0.43 0.45 0.51 0.53 0.52 0.37 0.29 0.19 0.20 0.21 0.21 0.18 0.16 0.16 0.17 0.20 0.21 0.20 0.22 0.20 0.20 0.19 0.18 0.18 0.17 0.18 0.20 0.19 0.20 0.23 0.25 0.26 0.29 0.31 0.32 0.35 0.41
0.39 0.61 0.80 0.54 0.32 0.42 0.47 0.41 0.44 0.43 0.40 0.42 0.44 0.34 0.25 0.25 0.24 0.22 0.18 0.15 0.15 0.13 0.13 0.16 0.17 0.19 0.19 0.18 0.17 0.16 0.16 0.17 0.17 0.19 0.19 0.20 0.23 0.26 0.27 0.30 0.34 0.40 0.45 0.52
0.24 0.51 0.79 0.55 0.38 0.51 0.37 0.30 0.32 0.36 0.34 0.37 0.35 0.27 0.23 0.23 0.23 0.22 0.17 0.14 0.12 0.09 0.08 0.09 0.11 0.12 0.12 0.12 0.12 0.13 0.13 0.14 0.16 0.19 0.23 0.24 0.25 0.33 0.39 0.39 0.42 0.49 0.56 0.63
0.11 0.38 0.67 0.55 0.41 0.28 0.20 0.20 0.23 0.31 0.34 0.31 0.23 0.17 0.16 0.17 0.21 0.21 0.17 0.13 0.10 0.09 0.09 0.08 0.09 0.11 0.11 0.11 0.13 0.15 0.15 0.16 0.16 0.20 0.25 0.28 0.29 0.38 0.47 0.47 0.49 0.54 0.60 0.66
0.09 0.25 0.59 0.51 0.43 0.21 0.13 0.08 0.10 0.20 0.32 0.22 0.20 0.18 0.18 0.20 0.24 0.21 0.16 0.14 0.13 0.12 0.11 0.11 0.11 0.12 0.14 0.16 0.18 0.20 0.22 0.27 0.29 0.30 0.34 0.39 0.44 0.51 0.55 0.55 0.54 0.51 0.51 0.52
0.17 0.32 0.46 0.40 0.36 0.10 0.05 0.05 0.07 0.22 0.27 0.13 0.14 0.16 0.18 0.19 0.18 0.17 0.13 0.11 0.14 0.16 0.15 0.15 0.15 0.18 0.20 0.20 0.21 0.24 0.27 0.36 0.41 0.43 0.46 0.47 0.50 0.52 0.52 0.50 0.47 0.41 0.36 0.34
0.09 0.15 0.17 0.20 0.27 0.14 0.06 0.07 0.11 0.15 0.11 0.11 0.14 0.16 0.17 0.17 0.14 0.13 0.14 0.12 0.11 0.12 0.13 0.16 0.18 0.21 0.23 0.26 0.30 0.31 0.33 0.39 0.42 0.42 0.43 0.42 0.40 0.39 0.40 0.39 0.37 0.32 0.29 0.27
0.06 0.08 0.10 0.11 0.12 0.09 0.09 0.08 0.08 0.07 0.08 0.08 0.11 0.13 0.13 0.14 0.14 0.12 0.11 0.11 0.10 0.11 0.12 0.15 0.20 0.24 0.27 0.28 0.31 0.32 0.32 0.31 0.32 0.33 0.33 0.31 0.27 0.25 0.26 0.26 0.27 0.26 0.24 0.23
0.10 0.08 0.09 0.08 0.05 0.04 0.06 0.06 0.06 0.05 0.04 0.04 0.05 0.07 0.11 0.14 0.14 0.13 0.11 0.10 0.08 0.09 0.10 0.12 0.14 0.16 0.19 0.20 0.22 0.23 0.21 0.21 0.20 0.20 0.21 0.22 0.19 0.18 0.19 0.19 0.21 0.22 0.23 0.22
0.13 0.11 0.10 0.08 0.05 0.05 0.05 0.04 0.04 0.03 0.03 0.02 0.02 0.03 0.06 0.08 0.08 0.10 0.11 0.09 0.08 0.08 0.09 0.09 0.09 0.09 0.11 0.12 0.12 0.13 0.12 0.13 0.14 0.14 0.15 0.16 0.18 0.18 0.19 0.21 0.23 0.25 0.26 0.29
0.04 0.06 0.10 0.10 0.06 0.06 0.06 0.04 0.04 0.04 0.03 0.03 0.03 0.03 0.04 0.05 0.06 0.05 0.06 0.06 0.06 0.07 0.08 0.08 0.08 0.09 0.12 0.12 0.10 0.11 0.10 0.10 0.12 0.14 0.15 0.16 0.17 0.18 0.19 0.20 0.23 0.26 0.28 0.30

GEFSCGP_prec_meanprecacc_150.txt.gz
Total_Precipitation_Accumulation
1.75 1.69 1.26 0.75 0.55 0.43 0.41 0.45 0.41 0.37 0.34 0.44 0.46 0.47 0.50 0.46 0.39 0.36 0.39 0.43 0.48 0.54 0.67 0.82 0.94 1.15 1.34 1.48 1.64 1.65 1.75 1.86 1.93 1.95 1.81 1.61 1.45 1.38 1.32 1.22 1.19 1.13 1.04 0.95
1.63 1.27 0.72 0.55 0.54 0.51 0.49 0.52 0.44 0.39 0.34 0.40 0.42 0.42 0.48 0.52 0.46 0.39 0.34 0.35 0.40 0.52 0.57 0.65 0.78 0.98 1.14 1.26 1.35 1.48 1.56 1.67 1.76 1.79 1.76 1.73 1.76 1.65 1.51 1.38 1.29 1.24 1.21 1.13
1.19 0.78 0.53 0.58 0.63 0.65 0.56 0.52 0.45 0.41 0.37 0.42 0.42 0.44 0.45 0.47 0.47 0.44 0.39 0.39 0.41 0.53 0.53 0.56 0.63 0.83 0.94 1.03 1.14 1.24 1.38 1.47 1.50 1.67 1.82 1.85 1.87 1.79 1.57 1.36 1.22 1.26 1.35 1.34
0.99 0.60 0.60 0.71 0.65 0.62 0.64 0.43 0.41 0.41 0.54 0.60 0.43 0.54 0.44 0.42 0.44 0.48 0.46 0.46 0.51 0.56 0.58 0.60 0.63 0.74 0.80 0.83 0.97 1.09 1.22 1.33 1.36 1.51 1.58 1.53 1.42 1.37 1.30 1.26 1.28 1.33 1.38 1.42
1.00 0.64 0.66 0.78 0.57 0.54 0.55 0.41 0.48 0.51 0.57 0.58 0.39 0.47 0.47 0.40 0.50 0.53 0.51 0.53 0.57 0.54 0.53 0.61 0.63 0.66 0.71 0.71 0.76 0.90 1.09 1.17 1.20 1.28 1.35 1.44 1.39 1.32 1.33 1.32 1.29 1.24 1.22 1.31
0.75 0.64 0.72 0.67 0.50 0.53 0.55 0.64 0.71 0.70 0.83 0.81 0.37 0.39 0.44 0.43 0.52 0.52 0.46 0.50 0.52 0.51 0.53 0.56 0.52 0.55 0.66 0.64 0.61 0.71 0.86 1.05 1.13 1.17 1.23 1.30 1.29 1.22 1.20 1.24 1.25 1.26 1.19 1.14
0.93 0.74 0.66 0.68 0.82 0.80 0.84 1.20 1.47 1.31 1.13 0.63 0.24 0.29 0.41 0.41 0.44 0.48 0.46 0.44 0.46 0.48 0.49 0.52 0.52 0.58 0.62 0.60 0.56 0.57 0.66 0.84 1.00 1.03 1.04 1.10 1.20 1.20 1.12 1.13 1.18 1.20 1.16 1.09
0.97 0.87 0.59 0.67 0.94 0.98 0.85 1.03 1.19 0.91 0.59 0.32 0.20 0.27 0.34 0.34 0.37 0.37 0.33 0.32 0.38 0.42 0.43 0.46 0.49 0.50 0.48 0.47 0.51 0.54 0.59 0.65 0.72 0.77 0.84 0.92 1.00 1.08 1.04 1.00 1.03 1.02 0.98 1.00
0.70 0.65 0.41 0.48 0.62 0.74 0.82 0.80 0.67 0.77 0.52 0.34 0.21 0.21 0.24 0.25 0.26 0.27 0.27 0.28 0.32 0.33 0.32 0.34 0.36 0.37 0.34 0.34 0.39 0.44 0.46 0.50 0.57 0.59 0.64 0.74 0.79 0.88 0.97 0.98 0.98 0.97 0.95 0.91
0.61 0.73 0.47 0.50 0.71 0.80 0.78 0.67 0.75 1.12 0.82 0.46 0.21 0.17 0.24 0.25 0.24 0.26 0.26 0.26 0.25 0.24 0.26 0.28 0.31 0.30 0.27 0.26 0.28 0.29 0.35 0.45 0.51 0.48 0.51 0.59 0.67 0.72 0.79 0.86 0.89 0.85 0.83 0.80
0.55 0.83 0.64 0.65 0.82 0.77 0.75 0.84 0.86 0.87 0.66 0.56 0.35 0.23 0.22 0.22 0.23 0.25 0.24 0.22 0.21 0.20 0.23 0.24 0.23 0.22 0.23 0.21 0.21 0.24 0.29 0.36 0.41 0.42 0.44 0.47 0.52 0.57 0.62 0.66 0.71 0.69 0.70 0.70
0.47 0.84 0.73 0.53 0.46 0.50 0.61 0.63 0.75 0.99 0.70 0.55 0.45 0.27 0.18 0.18 0.19 0.21 0.21 0.21 0.22 0.22 0.24 0.21 0.18 0.17 0.18 0.19 0.20 0.22 0.26 0.31 0.34 0.36 0.39 0.41 0.43 0.45 0.49 0.55 0.56 0.56 0.58 0.58
0.49 0.85 0.90 0.65 0.57 0.61 0.68 0.56 0.58 0.85 1.08 0.83 0.63 0.29 0.15 0.14 0.15 0.17 0.18 0.20 0.22 0.23 0.24 0.22 0.17 0.15 0.17 0.18 0.18 0.19 0.23 0.28 0.30 0.32 0.33 0.33 0.34 0.36 0.38 0.43 0.47 0.50 0.56 0.60
0.73 0.90 0.79 0.62 0.56 0.62 0.60 0.48 0.60 1.18 1.40 0.76 0.37 0.18 0.11 0.13 0.18 0.19 0.19 0.20 0.23 0.25 0.23 0.24 0.25 0.20 0.18 0.18 0.16 0.15 0.18 0.23 0.26 0.27 0.27 0.26 0.29 0.31 0.32 0.33 0.37 0.42 0.47 0.54
0.70 0.94 0.67 0.41 0.32 0.49 0.50 0.48 0.59 0.88 0.84 0.76 0.36 0.19 0.15 0.17 0.23 0.23 0.20 0.18 0.19 0.21 0.22 0.23 0.24 0.24 0.21 0.19 0.17 0.16 0.16 0.18 0.22 0.24 0.24 0.24 0.27 0.29 0.31 0.31 0.33 0.36 0.39 0.47
0.53 0.76 0.70 0.47 0.29 0.40 0.46 0.43 0.46 0.51 0.53 0.52 0.37 0.29 0.19 0.20 0.22 0.21 0.18 0.16 0.17 0.17 0.20 0.22 0.21 0.23 0.21 0.21 0.20 0.19 0.19 0.18 0.20 0.22 0.21 0.22 0.25 0.26 0.28 0.31 0.33 0.33 0.37 0.44
0.40 0.63 0.81 0.55 0.32 0.42 0.48 0.42 0.44 0.43 0.40 0.42 0.44 0.34 0.25 0.25 0.24 0.22 0.18 0.15 0.15 0.13 0.13 0.16 0.18 0.20 0.19 0.19 0.18 0.17 0.17 0.17 0.18 0.20 0.20 0.21 0.24 0.27 0.28 0.32 0.36 0.41 0.47 0.55
0.25 0.52 0.82 0.57 0.39 0.52 0.37 0.30 0.32 0.36 0.34 0.37 0.35 0.27 0.23 0.23 0.23 0.22 0.17 0.14 0.12 0.09 0.08 0.09 0.12 0.13 0.13 0.13 0.13 0.14 0.14 0.15 0.16 0.20 0.24 0.26 0.26 0.35 0.41 0.40 0.43 0.51 0.59 0.66
0.11 0.39 0.70 0.58 0.42 0.28 0.20 0.20 0.23 0.31 0.34 0.31 0.23 0.17 0.16 0.17 0.21 0.21 0.17 0.13 0.10 0.09 0.09 0.08 0.09 0.11 0.11 0.12 0.13 0.15 0.16 0.16 0.17 0.20 0.26 0.29 0.31 0.40 0.49 0.49 0.51 0.56 0.61 0.68
0.09 0.26 0.61 0.54 0.45 0.22 0.13 0.08 0.10 0.20 0.32 0.22 0.20 0.18 0.19 0.20 0.24 0.21 0.16 0.14 0.13 0.12 0.11 0.11 0.12 0.12 0.15 0.17 0.18 0.21 0.23 0.27 0.29 0.30 0.35 0.40 0.46 0.53 0.57 0.56 0.55 0.53 0.52 0.54
0.18 0.33 0.49 0.42 0.38 0.11 0.05 0.05 0.07 0.22 0.27 0.13 0.14 0.16 0.19 0.20 0.19 0.17 0.13 0.11 0.14 0.16 0.15 0.15 0.16 0.18 0.20 0.20 0.22 0.24 0.27 0.37 0.42 0.44 0.47 0.48 0.51 0.54 0.53 0.51 0.48 0.43 0.37 0.35
0.09 0.16 0.18 0.21 0.30 0.14 0.06 0.07 0.11 0.15 0.11 0.11 0.14 0.16 0.17 0.17 0.14 0.13 0.14 0.12 0.11 0.12 0.13 0.16 0.18 0.21 0.23 0.26 0.31 0.32 0.34 0.39 0.42 0.43 0.43 0.42 0.40 0.40 0.41 0.40 0.39 0.34 0.30 0.27
0.07 0.09 0.10 0.11 0.12 0.09 0.09 0.09 0.08 0.07 0.08 0.09 0.11 0.13 0.14 0.14 0.14 0.12 0.11 0.11 0.10 0.11 0.12 0.15 0.20 0.24 0.27 0.29 0.31 0.33 0.33 0.32 0.33 0.34 0.33 0.31 0.27 0.26 0.26 0.27 0.27 0.27 0.25 0.24
0.10 0.08 0.10 0.08 0.05 0.04 0.06 0.06 0.06 0.05 0.04 0.04 0.05 0.07 0.11 0.14 0.14 0.13 0.11 0.10 0.08 0.09 0.10 0.12 0.14 0.16 0.19 0.21 0.22 0.23 0.22 0.21 0.21 0.20 0.22 0.22 0.20 0.19 0.19 0.20 0.22 0.23 0.23 0.22
0.13 0.11 0.11 0.09 0.05 0.05 0.05 0.05 0.04 0.04 0.03 0.02 0.02 0.03 0.06 0.08 0.09 0.10 0.11 0.09 0.08 0.08 0.09 0.09 0.09 0.10 0.11 0.12 0.13 0.14 0.13 0.14 0.15 0.15 0.16 0.17 0.18 0.18 0.19 0.21 0.23 0.26 0.26 0.29
0.04 0.07 0.11 0.11 0.06 0.06 0.06 0.04 0.04 0.04 0.03 0.03 0.03 0.03 0.04 0.06 0.06 0.05 0.06 0.06 0.06 0.07 0.08 0.08 0.08 0.09 0.12 0.12 0.11 0.11 0.11 0.11 0.13 0.14 0.15 0.16 0.17 0.18 0.19 0.21 0.23 0.27 0.28 0.30

GEFSCGP_prec_meanprecacc_156.txt.gz
Total_Precipitation_Accumulation
1.78 1.72 1.28 0.76 0.56 0.44 0.42 0.46 0.42 0.37 0.34 0.45 0.47 0.47 0.50 0.46 0.39 0.36 0.39 0.43 0.48 0.54 0.67 0.82 0.94 1.15 1.35 1.49 1.65 1.66 1.76 1.86 1.93 1.96 1.82 1.61 1.46 1.40 1.33 1.23 1.21 1.15 1.07 0.98
1.65 1.29 0.73 0.56 0.55 0.52 0.49 0.52 0.45 0.39 0.35 0.40 0.42 0.42 0.48 0.52 0.46 0.39 0.34 0.35 0.40 0.52 0.57 0.66 0.79 0.98 1.15 1.26 1.36 1.49 1.57 1.67 1.77 1.80 1.76 1.73 1.77 1.65 1.52 1.39 1.30 1.25 1.23 1.16
1.19 0.79 0.54 0.58 0.64 0.66 0.57 0.53 0.46 0.42 0.38 0.42 0.42 0.45 0.45 0.47 0.47 0.44 0.39 0.39 0.41 0.53 0.53 0.56 0.64 0.83 0.95 1.04 1.14 1.24 1.38 1.47 1.50 1.67 1.82 1.85 1.87 1.79 1.57 1.36 1.22 1.27 1.37 1.38
0.99 0.60 0.60 0.72 0.65 0.63 0.65 0.44 0.42 0.42 0.55 0.61 0.44 0.55 0.44 0.42 0.44 0.48 0.46 0.46 0.51 0.56 0.58 0.61 0.64 0.75 0.80 0.85 0.99 1.10 1.22 1.33 1.36 1.51 1.58 1.54 1.42 1.37 1.30 1.26 1.28 1.34 1.39 1.44
1.00 0.64 0.66 0.78 0.58 0.55 0.56 0.42 0.48 0.52 0.58 0.59 0.39 0.47 0.47 0.40 0.50 0.53 0.51 0.53 0.57 0.55 0.54 0.61 0.63 0.67 0.71 0.71 0.77 0.91 1.09 1.17 1.21 1.28 1.36 1.44 1.39 1.33 1.33 1.32 1.29 1.24 1.23 1.32
0.75 0.65 0.72 0.68 0.51 0.53 0.55 0.64 0.71 0.71 0.84 0.81 0.37 0.39 0.44 0.43 0.52 0.52 0.46 0.50 0.52 0.51 0.54 0.56 0.53 0.56 0.66 0.64 0.61 0.72 0.86 1.06 1.14 1.18 1.24 1.31 1.29 1.23 1.21 1.25 1.26 1.27 1.20 1.15
0.93 0.74 0.66 0.68 0.83 0.80 0.85 1.21 1.48 1.31 1.13 0.64 0.24 0.29 0.41 0.41 0.44 0.48 0.46 0.44 0.46 0.49 0.50 0.52 0.52 0.58 0.62 0.61 0.57 0.58 0.67 0.85 1.00 1.03 1.04 1.10 1.20 1.20 1.13 1.14 1.19 1.21 1.17 1.10
0.97 0.88 0.59 0.68 0.95 0.99 0.86 1.04 1.20 0.92 0.60 0.32 0.20 0.27 0.34 0.34 0.37 0.37 0.33 0.32 0.38 0.42 0.43 0.46 0.49 0.51 0.49 0.49 0.52 0.55 0.59 0.66 0.73 0.78 0.84 0.92 1.01 1.08 1.05 1.01 1.04 1.03 0.99 1.01
0.70 0.65 0.41 0.48 0.63 0.75 0.83 0.80 0.67 0.78 0.52 0.34 0.21 0.21 0.24 0.25 0.26 0.27 0.27 0.28 0.32 0.33 0.32 0.34 0.36 0.37 0.34 0.35 0.41 0.46 0.48 0.51 0.57 0.60 0.64 0.75 0.79 0.89 0.98 0.99 0.99 1.02 0.98 0.94
0.61 0.73 0.47 0.50 0.71 0.80 0.79 0.68 0.76 1.13 0.83 0.46 0.21 0.17 0.24 0.25 0.24 0.27 0.27 0.26 0.25 0.24 0.26 0.28 0.31 0.30 0.27 0.27 0.28 0.30 0.36 0.47 0.52 0.49 0.52 0.60 0.67 0.73 0.80 0.87 0.90 0.90 0.87 0.82
0.55 0.83 0.64 0.65 0.82 0.77 0.75 0.85 0.87 0.89 0.67 0.58 0.36 0.23 0.22 0.22 0.23 0.25 0.25 0.22 0.21 0.20 0.23 0.24 0.23 0.23 0.23 0.22 0.22 0.25 0.30 0.37 0.42 0.43 0.45 0.48 0.53 0.58 0.62 0.67 0.71 0.71 0.72 0.72
0.48 0.85 0.73 0.53 0.46 0.50 0.61 0.64 0.77 1.01 0.72 0.56 0.46 0.28 0.19 0.18 0.19 0.21 0.21 0.21 0.22 0.23 0.24 0.21 0.18 0.17 0.19 0.19 0.21 0.22 0.27 0.32 0.35 0.37 0.40 0.43 0.45 0.46 0.50 0.56 0.57 0.57 0.59 0.60
0.50 0.87 0.91 0.65 0.57 0.62 0.68 0.56 0.58 0.87 1.11 0.85 0.64 0.30 0.16 0.15 0.15 0.17 0.19 0.21 0.24 0.25 0.25 0.23 0.19 0.16 0.17 0.19 0.19 0.19 0.24 0.28 0.31 0.33 0.34 0.35 0.37 0.38 0.40 0.45 0.48 0.51 0.57 0.61
0.75 0.92 0.81 0.63 0.56 0.62 0.60 0.48 0.61 1.19 1.42 0.77 0.37 0.18 0.12 0.13 0.19 0.20 0.20 0.22 0.25 0.27 0.26 0.26 0.27 0.22 0.19 0.19 0.17 0.16 0.19 0.23 0.27 0.28 0.29 0.29 0.32 0.35 0.35 0.36 0.38 0.43 0.48 0.54
0.71 0.95 0.67 0.41 0.32 0.49 0.51 0.48 0.59 0.88 0.85 0.77 0.36 0.19 0.15 0.17 0.24 0.23 0.21 0.19 0.20 0.22 0.23 0.24 0.25 0.25 0.22 0.19 0.18 0.16 0.16 0.19 0.22 0.25 0.25 0.27 0.30 0.32 0.34 0.35 0.36 0.38 0.40 0.48
0.53 0.77 0.70 0.47 0.29 0.40 0.46 0.43 0.46 0.51 0.53 0.52 0.37 0.29 0.19 0.20 0.22 0.21 0.18 0.16 0.17 0.18 0.20 0.22 0.21 0.23 0.21 0.21 0.21 0.20 0.19 0.19 0.21 0.23 0.23 0.24 0.27 0.29 0.32 0.35 0.36 0.36 0.38 0.45
0.41 0.64 0.83 0.55 0.32 0.42 0.48 0.42 0.44 0.43 0.40 0.42 0.44 0.34 0.25 0.26 0.24 0.22 0.18 0.15 0.15 0.13 0.13 0.16 0.18 0.20 0.19 0.19 0.18 0.17 0.18 0.18 0.19 0.21 0.22 0.23 0.26 0.30 0.32 0.35 0.39 0.44 0.49 0.56
0.25 0.53 0.84 0.59 0.40 0.52 0.37 0.30 0.32 0.36 0.34 0.37 0.35 0.27 0.23 0.23 0.23 0.22 0.17 0.14 0.12 0.09 0.08 0.09 0.12 0.13 0.13 0.13 0.13 0.15 0.14 0.15 0.17 0.21 0.26 0.27 0.28 0.37 0.43 0.43 0.46 0.54 0.61 0.68
0.11 0.40 0.73 0.60 0.44 0.29 0.20 0.20 0.23 0.31 0.34 0.31 0.23 0.17 0.16 0.17 0.21 0.21 0.17 0.13 0.11 0.09 0.09 0.08 0.09 0.11 0.12 0.12 0.13 0.16 0.16 0.17 0.18 0.21 0.28 0.32 0.33 0.42 0.52 0.51 0.53 0.58 0.63 0.70
0.10 0.27 0.63 0.57 0.47 0.22 0.13 0.08 0.10 0.20 0.32 0.22 0.20 0.19 0.19 0.21 0.25 0.21 0.16 0.14 0.13 0.12 0.11 0.11 0.12 0.13 0.15 0.17 0.18 0.21 0.23 0.27 0.30 0.31 0.36 0.42 0.48 0.56 0.59 0.58 0.57 0.54 0.54 0.56
0.19 0.35 0.51 0.44 0.40 0.12 0.06 0.05 0.07 0.23 0.28 0.14 0.14 0.16 0.19 0.20 0.19 0.17 0.13 0.11 0.14 0.16 0.15 0.15 0.16 0.18 0.20 0.20 0.22 0.25 0.28 0.37 0.42 0.44 0.47 0.49 0.53 0.56 0.55 0.53 0.50 0.44 0.39 0.38
0.10 0.17 0.19 0.22 0.31 0.15 0.07 0.07 0.12 0.17 0.12 0.12 0.15 0.17 0.17 0.17 0.14 0.13 0.14 0.12 0.11 0.12 0.13 0.16 0.18 0.21 0.23 0.26 0.31 0.32 0.35 0.40 0.43 0.43 0.44 0.43 0.42 0.42 0.43 0.42 0.40 0.35 0.32 0.30
0.07 0.09 0.11 0.12 0.13 0.09 0.09 0.09 0.09 0.08 0.09 0.10 0.12 0.14 0.14 0.14 0.15 0.12 0.11 0.11 0.10 0.11 0.12 0.15 0.20 0.24 0.27 0.29 0.31 0.33 0.33 0.33 0.34 0.34 0.34 0.31 0.29 0.28 0.28 0.28 0.29 0.29 0.27 0.25
0.10 0.08 0.10 0.08 0.05 0.05 0.06 0.06 0.06 0.05 0.05 0.04 0.05 0.07 0.12 0.14 0.14 0.13 0.11 0.10 0.08 0.09 0.10 0.12 0.14 0.16 0.19 0.21 0.22 0.24 0.23 0.22 0.22 0.21 0.22 0.22 0.20 0.20 0.21 0.21 0.23 0.24 0.24 0.24
0.13 0.12 0.11 0.09 0.05 0.05 0.05 0.05 0.04 0.04 0.03 0.02 0.02 0.03 0.06 0.08 0.09 0.10 0.11 0.09 0.08 0.08 0.09 0.09 0.09 0.10 0.11 0.12 0.13 0.14 0.14 0.15 0.16 0.16 0.16 0.17 0.19 0.19 0.21 0.22 0.24 0.27 0.27 0.30
0.04 0.07 0.11 0.11 0.06 0.06 0.06 0.04 0.04 0.04 0.03 0.03 0.03 0.03 0.04 0.06 0.06 0.05 0.06 0.06 0.07 0.07 0.08 0.08 0.08 0.09 0.12 0.12 0.11 0.11 0.11 0.12 0.14 0.16 0.17 0.18 0.19 0.19 0.20 0.22 0.24 0.28 0.29 0.31

GEFSCGP_prec_meanprecacc_162.txt.gz
Total_Precipitation_Accumulation
1.78 1.72 1.28 0.76 0.56 0.45 0.42 0.46 0.42 0.38 0.34 0.45 0.47 0.47 0.50 0.46 0.39 0.36 0.39 0.43 0.48 0.54 0.67 0.82 0.94 1.15 1.35 1.50 1.65 1.66 1.77 1.87 1.95 1.99 1.85 1.64 1.48 1.42 1.36 1.27 1.23 1.17 1.10 1.03
1.65 1.29 0.73 0.56 0.55 0.52 0.50 0.53 0.45 0.39 0.35 0.41 0.42 0.43 0.48 0.52 0.46 0.39 0.34 0.35 0.40 0.52 0.57 0.66 0.79 0.99 1.15 1.27 1.37 1.49 1.57 1.69 1.78 1.81 1.78 1.76 1.80 1.67 1.53 1.41 1.31 1.27 1.24 1.18
1.20 0.79 0.54 0.58 0.64 0.66 0.57 0.53 0.46 0.42 0.38 0.43 0.43 0.45 0.45 0.47 0.47 0.44 0.39 0.39 0.41 0.53 0.53 0.57 0.64 0.84 0.95 1.04 1.15 1.25 1.39 1.48 1.51 1.68 1.83 1.87 1.89 1.80 1.58 1.37 1.23 1.28 1.37 1.39
0.99 0.60 0.60 0.72 0.65 0.63 0.65 0.44 0.43 0.43 0.55 0.62 0.44 0.56 0.44 0.42 0.44 0.48 0.46 0.46 0.51 0.56 0.59 0.61 0.64 0.76 0.81 0.85 0.99 1.10 1.23 1.34 1.37 1.52 1.60 1.55 1.43 1.38 1.30 1.26 1.29 1.34 1.40 1.45
1.00 0.64 0.66 0.78 0.58 0.55 0.56 0.42 0.48 0.52 0.58 0.60 0.40 0.48 0.48 0.41 0.50 0.53 0.51 0.53 0.57 0.55 0.54 0.61 0.63 0.68 0.72 0.71 0.77 0.91 1.10 1.17 1.21 1.29 1.36 1.45 1.40 1.33 1.33 1.33 1.29 1.25 1.23 1.32
0.75 0.65 0.72 0.68 0.51 0.53 0.55 0.64 0.71 0.71 0.84 0.82 0.37 0.40 0.45 0.43 0.52 0.52 0.46 0.50 0.52 0.51 0.54 0.56 0.53 0.56 0.67 0.65 0.61 0.72 0.87 1.07 1.15 1.18 1.24 1.31 1.30 1.23 1.21 1.26 1.26 1.27 1.20 1.16
0.93 0.75 0.67 0.69 0.83 0.81 0.85 1.22 1.49 1.32 1.14 0.64 0.24 0.29 0.41 0.41 0.44 0.48 0.46 0.44 0.46 0.49 0.50 0.52 0.53 0.59 0.63 0.62 0.57 0.58 0.67 0.86 1.01 1.04 1.05 1.10 1.21 1.21 1.13 1.15 1.20 1.21 1.17 1.11
0.97 0.88 0.59 0.68 0.95 0.99 0.86 1.04 1.21 0.93 0.60 0.32 0.20 0.27 0.34 0.34 0.37 0.37 0.33 0.32 0.38 0.42 0.43 0.46 0.49 0.52 0.50 0.50 0.53 0.55 0.60 0.66 0.73 0.78 0.85 0.93 1.01 1.09 1.05 1.01 1.04 1.03 1.00 1.02
0.70 0.65 0.41 0.48 0.63 0.75 0.83 0.81 0.68 0.80 0.53 0.35 0.22 0.21 0.25 0.25 0.26 0.27 0.27 0.28 0.32 0.33 0.33 0.34 0.36 0.37 0.34 0.35 0.42 0.47 0.49 0.52 0.58 0.60 0.64 0.75 0.80 0.89 0.98 1.00 1.00 1.02 0.99 0.94
0.62 0.74 0.47 0.50 0.71 0.80 0.79 0.68 0.77 1.15 0.84 0.47 0.21 0.18 0.24 0.25 0.25 0.27 0.27 0.26 0.25 0.24 0.26 0.28 0.31 0.30 0.27 0.27 0.28 0.31 0.37 0.47 0.52 0.50 0.53 0.60 0.68 0.73 0.80 0.87 0.91 0.90 0.87 0.82
0.55 0.84 0.65 0.65 0.82 0.77 0.75 0.85 0.88 0.90 0.68 0.59 0.37 0.23 0.22 0.22 0.23 0.25 0.25 0.22 0.21 0.20 0.23 0.24 0.23 0.23 0.23 0.22 0.22 0.25 0.30 0.38 0.42 0.43 0.45 0.48 0.53 0.58 0.63 0.67 0.72 0.71 0.72 0.73
0.48 0.85 0.74 0.53 0.46 0.50 0.61 0.64 0.77 1.03 0.73 0.57 0.47 0.28 0.19 0.18 0.20 0.22 0.21 0.22 0.22 0.23 0.24 0.21 0.18 0.17 0.19 0.20 0.21 0.22 0.27 0.32 0.35 0.37 0.40 0.43 0.45 0.46 0.50 0.56 0.57 0.57 0.60 0.60
0.51 0.89 0.92 0.66 0.57 0.62 0.68 0.57 0.59 0.88 1.12 0.86 0.65 0.30 0.16 0.15 0.16 0.17 0.19 0.21 0.24 0.25 0.25 0.23 0.19 0.16 0.18 0.19 0.20 0.20 0.24 0.29 0.31 0.33 0.35 0.35 0.37 0.39 0.40 0.45 0.49 0.51 0.57 0.61
0.75 0.93 0.82 0.63 0.56 0.63 0.60 0.48 0.61 1.20 1.44 0.77 0.38 0.18 0.12 0.13 0.19 0.20 0.20 0.22 0.25 0.27 0.26 0.26 0.27 0.22 0.19 0.19 0.17 0.16 0.19 0.24 0.27 0.28 0.29 0.29 0.33 0.35 0.35 0.36 0.39 0.44 0.49 0.55
0.72 0.96 0.67 0.41 0.32 0.49 0.51 0.48 0.59 0.88 0.85 0.78 0.36 0.19 0.15 0.17 0.24 0.23 0.21 0.19 0.20 0.22 0.24 0.24 0.26 0.26 0.23 0.20 0.18 0.17 0.17 0.20 0.23 0.26 0.26 0.27 0.31 0.33 0.35 0.36 0.37 0.39 0.41 0.49
0.53 0.77 0.70 0.47 0.29 0.40 0.46 0.43 0.46 0.51 0.53 0.53 0.38 0.29 0.19 0.20 0.22 0.21 0.18 0.16 0.17 0.18 0.20 0.22 0.21 0.23 0.21 0.22 0.21 0.20 0.20 0.19 0.21 0.24 0.23 0.24 0.27 0.30 0.32 0.35 0.37 0.37 0.40 0.46
0.41 0.64 0.84 0.56 0.32 0.42 0.48 0.42 0.44 0.43 0.40 0.43 0.45 0.35 0.26 0.26 0.24 0.22 0.19 0.16 0.15 0.13 0.13 0.16 0.18 0.20 0.20 0.19 0.19 0.17 0.18 0.18 0.19 0.22 0.22 0.24 0.27 0.31 0.32 0.36 0.40 0.46 0.51 0.58
0.26 0.54 0.86 0.60 0.41 0.53 0.37 0.30 0.32 0.36 0.35 0.37 0.35 0.28 0.23 0.23 0.23 0.22 0.18 0.15 0.12 0.10 0.08 0.09 0.12 0.13 0.13 0.13 0.14 0.15 0.14 0.15 0.17 0.21 0.26 0.28 0.29 0.37 0.44 0.44 0.47 0.56 0.63 0.70
0.11 0.41 0.76 0.63 0.45 0.29 0.20 0.20 0.24 0.31 0.35 0.31 0.24 0.17 0.16 0.17 0.21 0.22 0.18 0.14 0.11 0.09 0.09 0.08 0.09 0.11 0.12 0.12 0.14 0.16 0.16 0.17 0.18 0.21 0.28 0.32 0.33 0.43 0.53 0.53 0.54 0.59 0.65 0.72
0.10 0.28 0.66 0.60 0.49 0.23 0.13 0.08 0.10 0.20 0.33 0.22 0.20 0.19 0.19 0.21 0.25 0.22 0.16 0.14 0.14 0.12 0.11 0.11 0.12 0.13 0.15 0.17 0.19 0.21 0.23 0.28 0.30 0.31 0.36 0.42 0.49 0.56 0.61 0.60 0.59 0.56 0.56 0.58
0.19 0.37 0.54 0.46 0.42 0.12 0.06 0.05 0.08 0.23 0.28 0.14 0.14 0.16 0.19 0.21 0.19 0.17 0.13 0.11 0.14 0.16 0.15 0.15 0.16 0.18 0.20 0.20 0.22 0.25 0.28 0.37 0.42 0.44 0.48 0.50 0.54 0.57 0.57 0.55 0.52 0.46 0.42 0.41
0.11 0.19 0.21 0.24 0.34 0.16 0.07 0.07 0.13 0.17 0.12 0.12 0.15 0.17 0.17 0.17 0.14 0.13 0.14 0.12 0.11 0.12 0.14 0.16 0.18 0.21 0.23 0.26 0.31 0.32 0.35 0.40 0.43 0.43 0.44 0.43 0.43 0.43 0.45 0.44 0.42 0.38 0.35 0.33
0.07 0.10 0.11 0.13 0.14 0.10 0.09 0.09 0.09 0.08 0.09 0.10 0.12 0.14 0.14 0.14 0.15 0.12 0.11 0.11 0.10 0.11 0.12 0.15 0.20 0.24 0.27 0.29 0.31 0.33 0.33 0.33 0.34 0.34 0.34 0.32 0.29 0.29 0.30 0.30 0.32 0.31 0.30 0.29
0.10 0.08 0.10 0.09 0.05 0.05 0.06 0.06 0.06 0.05 0.05 0.04 0.05 0.07 0.12 0.15 0.14 0.13 0.11 0.10 0.08 0.09 0.10 0.12 0.14 0.16 0.19 0.21 0.22 0.24 0.23 0.23 0.22 0.22 0.23 0.23 0.21 0.21 0.22 0.23 0.26 0.27 0.27 0.27
0.13 0.12 0.12 0.10 0.05 0.05 0.05 0.05 0.04 0.04 0.03 0.02 0.02 0.03 0.06 0.09 0.09 0.10 0.11 0.09 0.09 0.08 0.09 0.09 0.09 0.10 0.11 0.12 0.13 0.14 0.14 0.15 0.17 0.16 0.17 0.18 0.19 0.20 0.22 0.24 0.27 0.30 0.30 0.33
0.05 0.07 0.12 0.12 0.06 0.07 0.06 0.04 0.04 0.04 0.03 0.03 0.03 0.03 0.04 0.06 0.06 0.05 0.06 0.06 0.07 0.08 0.08 0.08 0.08 0.09 0.12 0.12 0.11 0.11 0.11 0.12 0.14 0.16 0.17 0.18 0.20 0.20 0.21 0.23 0.26 0.30 0.32 0.35

GEFSCGP_prec_meanprecacc_168.txt.gz
Total_Precipitation_Accumulation
1.78 1.73 1.29 0.77 0.57 0.45 0.42 0.46 0.42 0.38 0.35 0.45 0.48 0.47 0.50 0.46 0.39 0.36 0.39 0.43 0.48 0.54 0.67 0.82 0.94 1.16 1.37 1.51 1.67 1.68 1.78 1.89 1.97 2.03 1.94 1.72 1.55 1.49 1.42 1.31 1.26 1.19 1.13 1.08
1.65 1.29 0.73 0.56 0.55 0.52 0.50 0.53 0.45 0.39 0.35 0.41 0.42 0.43 0.48 0.52 0.46 0.39 0.34 0.36 0.40 0.52 0.57 0.66 0.79 0.99 1.16 1.28 1.39 1.50 1.58 1.70 1.79 1.83 1.81 1.80 1.84 1.71 1.56 1.43 1.33 1.28 1.25 1.20
1.20 0.79 0.54 0.59 0.64 0.66 0.57 0.53 0.46 0.42 0.38 0.43 0.43 0.45 0.45 0.47 0.48 0.44 0.39 0.39 0.41 0.53 0.53 0.57 0.64 0.85 0.96 1.06 1.17 1.27 1.39 1.49 1.52 1.70 1.86 1.88 1.91 1.84 1.60 1.39 1.25 1.29 1.38 1.39
1.00 0.61 0.61 0.72 0.66 0.63 0.65 0.44 0.43 0.43 0.55 0.62 0.45 0.56 0.44 0.42 0.45 0.48 0.46 0.46 0.51 0.56 0.59 0.61 0.64 0.76 0.82 0.86 1.00 1.12 1.24 1.34 1.37 1.52 1.61 1.56 1.45 1.41 1.33 1.28 1.30 1.35 1.40 1.46
1.01 0.64 0.66 0.78 0.58 0.55 0.56 0.42 0.48 0.52 0.58 0.60 0.40 0.48 0.48 0.41 0.50 0.53 0.51 0.53 0.57 0.55 0.54 0.61 0.63 0.68 0.73 0.72 0.78 0.92 1.11 1.18 1.22 1.29 1.36 1.45 1.41 1.34 1.35 1.35 1.30 1.26 1.24 1.33
0.76 0.65 0.72 0.68 0.51 0.53 0.55 0.64 0.71 0.71 0.84 0.82 0.38 0.41 0.45 0.44 0.52 0.52 0.46 0.50 0.52 0.51 0.54 0.56 0.53 0.57 0.68 0.65 0.62 0.73 0.87 1.07 1.15 1.18 1.24 1.31 1.30 1.23 1.22 1.26 1.27 1.28 1.21 1.16
0.93 0.75 0.67 0.69 0.83 0.81 0.85 1.22 1.49 1.32 1.14 0.64 0.24 0.30 0.42 0.42 0.44 0.49 0.47 0.44 0.46 0.49 0.50 0.53 0.53 0.59 0.64 0.63 0.58 0.58 0.67 0.86 1.01 1.04 1.05 1.10 1.21 1.21 1.13 1.15 1.20 1.21 1.17 1.11
0.98 0.88 0.59 0.68 0.95 0.99 0.86 1.04 1.22 0.94 0.61 0.32 0.20 0.27 0.34 0.35 0.37 0.37 0.33 0.32 0.38 0.42 0.43 0.47 0.49 0.52 0.50 0.50 0.53 0.55 0.60 0.66 0.73 0.78 0.85 0.93 1.01 1.09 1.05 1.01 1.04 1.04 1.00 1.02
0.71 0.65 0.41 0.48 0.63 0.75 0.83 0.81 0.68 0.80 0.53 0.35 0.22 0.22 0.25 0.26 0.26 0.27 0.27 0.28 0.32 0.33 0.33 0.34 0.36 0.37 0.34 0.35 0.42 0.48 0.49 0.52 0.58 0.60 0.64 0.75 0.80 0.89 0.98 1.00 1.00 1.02 0.99 0.94
0.62 0.74 0.48 0.50 0.72 0.80 0.79 0.68 0.77 1.15 0.85 0.47 0.21 0.19 0.26 0.25 0.25 0.27 0.27 0.26 0.25 0.24 0.26 0.28 0.31 0.30 0.27 0.27 0.28 0.31 0.37 0.48 0.53 0.50 0.53 0.60 0.68 0.73 0.80 0.87 0.91 0.90 0.87 0.83
0.56 0.85 0.65 0.65 0.82 0.77 0.75 0.85 0.88 0.91 0.69 0.60 0.37 0.24 0.22 0.22 0.23 0.25 0.25 0.22 0.21 0.20 0.23 0.24 0.23 0.23 0.23 0.22 0.22 0.25 0.30 0.38 0.42 0.43 0.45 0.48 0.53 0.58 0.63 0.67 0.72 0.71 0.72 0.73
0.49 0.86 0.74 0.53 0.46 0.50 0.62 0.65 0.79 1.05 0.75 0.58 0.48 0.28 0.19 0.18 0.20 0.22 0.22 0.22 0.22 0.23 0.24 0.21 0.18 0.17 0.19 0.20 0.21 0.22 0.27 0.32 0.35 0.37 0.40 0.43 0.45 0.46 0.50 0.56 0.57 0.57 0.60 0.60
0.51 0.89 0.93 0.66 0.58 0.62 0.69 0.58 0.60 0.89 1.13 0.87 0.65 0.30 0.16 0.15 0.16 0.17 0.19 0.22 0.24 0.25 0.26 0.23 0.19 0.17 0.18 0.19 0.20 0.20 0.24 0.29 0.31 0.33 0.35 0.35 0.37 0.39 0.40 0.45 0.49 0.52 0.57 0.62
0.76 0.94 0.82 0.64 0.57 0.64 0.61 0.49 0.61 1.21 1.46 0.79 0.38 0.19 0.12 0.14 0.20 0.20 0.20 0.22 0.25 0.27 0.26 0.26 0.27 0.22 0.19 0.19 0.17 0.16 0.19 0.24 0.28 0.28 0.29 0.29 0.33 0.35 0.35 0.37 0.40 0.44 0.49 0.56
0.72 0.97 0.67 0.41 0.32 0.49 0.51 0.49 0.60 0.89 0.86 0.79 0.37 0.20 0.17 0.19 0.25 0.24 0.21 0.19 0.20 0.22 0.24 0.25 0.26 0.26 0.23 0.20 0.19 0.17 0.17 0.20 0.23 0.26 0.26 0.27 0.31 0.33 0.35 0.36 0.38 0.40 0.42 0.50
0.54 0.79 0.71 0.48 0.29 0.40 0.47 0.43 0.46 0.51 0.54 0.53 0.38 0.31 0.22 0.21 0.22 0.22 0.19 0.17 0.17 0.18 0.21 0.22 0.21 0.23 0.21 0.22 0.21 0.20 0.20 0.20 0.21 0.24 0.24 0.24 0.28 0.30 0.33 0.35 0.38 0.38 0.41 0.48
0.42 0.65 0.86 0.57 0.32 0.43 0.49 0.42 0.44 0.43 0.41 0.43 0.46 0.36 0.26 0.26 0.24 0.23 0.20 0.16 0.15 0.13 0.13 0.16 0.18 0.20 0.20 0.19 0.19 0.17 0.18 0.18 0.20 0.22 0.22 0.24 0.27 0.31 0.32 0.36 0.41 0.46 0.51 0.59
0.27 0.56 0.90 0.63 0.42 0.54 0.38 0.30 0.32 0.36 0.35 0.38 0.36 0.28 0.23 0.24 0.23 0.23 0.19 0.15 0.13 0.10 0.08 0.09 0.12 0.13 0.13 0.13 0.14 0.16 0.15 0.16 0.17 0.21 0.26 0.28 0.29 0.37 0.44 0.44 0.48 0.56 0.63 0.70
0.12 0.43 0.80 0.68 0.48 0.30 0.20 0.20 0.24 0.32 0.35 0.32 0.24 0.17 0.16 0.17 0.22 0.22 0.18 0.14 0.11 0.09 0.09 0.09 0.09 0.12 0.12 0.12 0.14 0.16 0.18 0.18 0.18 0.22 0.28 0.32 0.33 0.43 0.53 0.53 0.55 0.59 0.65 0.72
0.11 0.31 0.71 0.65 0.53 0.24 0.14 0.09 0.10 0.21 0.33 0.22 0.20 0.19 0.19 0.21 0.26 0.22 0.16 0.14 0.14 0.12 0.11 0.11 0.12 0.13 0.15 0.17 0.19 0.21 0.24 0.29 0.31 0.32 0.37 0.43 0.49 0.56 0.61 0.60 0.59 0.57 0.56 0.58
0.21 0.41 0.59 0.51 0.46 0.14 0.07 0.05 0.08 0.25 0.29 0.14 0.14 0.17 0.20 0.21 0.20 0.17 0.13 0.11 0.14 0.16 0.16 0.15 0.16 0.18 0.20 0.20 0.22 0.25 0.28 0.38 0.43 0.45 0.48 0.50 0.55 0.57 0.57 0.55 0.52 0.47 0.42 0.41
0.12 0.21 0.24 0.27 0.39 0.19 0.07 0.08 0.14 0.18 0.13 0.13 0.15 0.17 0.18 0.18 0.14 0.13 0.14 0.13 0.11 0.12 0.14 0.16 0.19 0.21 0.23 0.26 0.31 0.33 0.35 0.40 0.43 0.44 0.44 0.44 0.43 0.44 0.45 0.44 0.43 0.39 0.36 0.34
0.08 0.11 0.13 0.15 0.15 0.10 0.09 0.10 0.10 0.09 0.10 0.10 0.13 0.14 0.14 0.15 0.15 0.12 0.11 0.11 0.10 0.11 0.12 0.15 0.20 0.24 0.27 0.29 0.31 0.34 0.34 0.34 0.34 0.35 0.34 0.32 0.30 0.29 0.30 0.31 0.32 0.32 0.31 0.30
0.11 0.09 0.11 0.10 0.06 0.05 0.06 0.06 0.06 0.06 0.05 0.05 0.05 0.08 0.12 0.15 0.14 0.13 0.11 0.10 0.08 0.09 0.10 0.12 0.14 0.16 0.19 0.21 0.22 0.24 0.23 0.23 0.22 0.22 0.23 0.24 0.21 0.21 0.23 0.23 0.26 0.28 0.28 0.28
0.15 0.13 0.14 0.11 0.06 0.05 0.05 0.05 0.04 0.04 0.03 0.03 0.02 0.04 0.06 0.09 0.09 0.10 0.11 0.09 0.09 0.08 0.09 0.09 0.09 0.10 0.11 0.12 0.13 0.14 0.14 0.15 0.17 0.17 0.17 0.18 0.20 0.20 0.22 0.24 0.27 0.31 0.31 0.34
0.05 0.08 0.13 0.13 0.07 0.08 0.07 0.04 0.04 0.05 0.04 0.03 0.03 0.04 0.04 0.06 0.06 0.05 0.06 0.06 0.07 0.08 0.08 0.08 0.08 0.09 0.12 0.12 0.11 0.11 0.11 0.12 0.15 0.17 0.17 0.19 0.20 0.20 0.21 0.23 0.27 0.31 0.33 0.36

GEFSCGP_prec_meanprecacc_174.txt.gz
Total_Precipitation_Accumulation
1.78 1.73 1.29 0.77 0.57 0.45 0.43 0.46 0.43 0.38 0.35 0.46 0.48 0.48 0.50 0.47 0.40 0.38 0.41 0.45 0.49 0.55 0.67 0.83 0.96 1.18 1.41 1.55 1.70 1.71 1.81 1.91 2.00 2.08 2.01 1.81 1.64 1.59 1.54 1.45 1.41 1.30 1.19 1.13
1.65 1.29 0.73 0.56 0.55 0.53 0.50 0.53 0.45 0.39 0.35 0.41 0.43 0.43 0.49 0.53 0.48 0.40 0.35 0.37 0.40 0.52 0.57 0.66 0.79 0.99 1.17 1.30 1.40 1.52 1.60 1.71 1.80 1.85 1.85 1.85 1.90 1.76 1.61 1.50 1.41 1.37 1.32 1.24
1.20 0.79 0.54 0.59 0.64 0.66 0.57 0.53 0.46 0.42 0.38 0.43 0.43 0.45 0.45 0.48 0.48 0.45 0.40 0.39 0.42 0.53 0.53 0.57 0.64 0.85 0.96 1.06 1.17 1.28 1.41 1.50 1.53 1.72 1.89 1.93 1.96 1.88 1.64 1.42 1.28 1.33 1.43 1.43
1.00 0.61 0.61 0.72 0.66 0.63 0.65 0.44 0.43 0.43 0.55 0.62 0.45 0.56 0.44 0.42 0.45 0.48 0.47 0.47 0.51 0.56 0.59 0.61 0.64 0.76 0.82 0.86 1.01 1.13 1.26 1.36 1.39 1.54 1.63 1.61 1.50 1.45 1.37 1.31 1.33 1.37 1.43 1.49
1.01 0.65 0.67 0.78 0.58 0.55 0.56 0.42 0.48 0.52 0.58 0.60 0.40 0.49 0.48 0.42 0.50 0.53 0.51 0.53 0.57 0.55 0.54 0.61 0.63 0.68 0.73 0.72 0.78 0.93 1.13 1.20 1.24 1.31 1.38 1.48 1.45 1.39 1.41 1.40 1.33 1.28 1.25 1.34
0.76 0.66 0.72 0.68 0.51 0.53 0.55 0.64 0.71 0.71 0.84 0.82 0.38 0.41 0.46 0.45 0.53 0.52 0.46 0.51 0.53 0.52 0.54 0.56 0.53 0.57 0.68 0.65 0.62 0.73 0.88 1.09 1.17 1.20 1.26 1.33 1.32 1.26 1.26 1.31 1.31 1.29 1.22 1.17
0.94 0.75 0.67 0.69 0.83 0.81 0.85 1.22 1.49 1.32 1.14 0.64 0.24 0.30 0.43 0.43 0.45 0.49 0.47 0.44 0.46 0.49 0.50 0.53 0.53 0.59 0.64 0.63 0.58 0.59 0.67 0.87 1.03 1.05 1.06 1.11 1.22 1.22 1.15 1.18 1.23 1.24 1.19 1.12
0.98 0.88 0.59 0.68 0.95 0.99 0.86 1.05 1.22 0.94 0.61 0.32 0.20 0.28 0.35 0.35 0.37 0.37 0.33 0.32 0.38 0.43 0.43 0.47 0.49 0.52 0.50 0.50 0.53 0.55 0.60 0.67 0.74 0.79 0.86 0.94 1.02 1.09 1.05 1.02 1.05 1.05 1.01 1.03
0.71 0.66 0.41 0.48 0.63 0.75 0.83 0.81 0.68 0.80 0.53 0.35 0.22 0.23 0.26 0.26 0.26 0.27 0.27 0.28 0.32 0.33 0.33 0.35 0.37 0.37 0.34 0.36 0.42 0.48 0.49 0.52 0.58 0.60 0.65 0.76 0.80 0.90 0.98 1.00 1.00 1.03 0.99 0.95
0.62 0.74 0.48 0.50 0.72 0.81 0.79 0.69 0.77 1.16 0.86 0.47 0.21 0.19 0.26 0.25 0.25 0.27 0.27 0.26 0.25 0.24 0.26 0.28 0.31 0.30 0.27 0.27 0.28 0.31 0.37 0.48 0.53 0.50 0.53 0.61 0.68 0.73 0.80 0.87 0.91 0.90 0.87 0.83
0.56 0.85 0.65 0.65 0.82 0.78 0.76 0.86 0.89 0.92 0.70 0.61 0.38 0.24 0.22 0.22 0.23 0.25 0.25 0.23 0.21 0.20 0.23 0.24 0.24 0.23 0.24 0.22 0.22 0.25 0.30 0.38 0.42 0.43 0.45 0.48 0.53 0.58 0.63 0.67 0.72 0.71 0.72 0.73
0.49 0.86 0.74 0.53 0.46 0.50 0.62 0.65 0.80 1.07 0.76 0.59 0.49 0.29 0.19 0.18 0.20 0.22 0.22 0.22 0.23 0.23 0.24 0.22 0.19 0.17 0.20 0.20 0.21 0.22 0.27 0.32 0.35 0.37 0.40 0.43 0.45 0.46 0.50 0.56 0.57 0.57 0.60 0.60
0.52 0.91 0.94 0.67 0.58 0.62 0.70 0.58 0.61 0.90 1.15 0.88 0.67 0.31 0.16 0.15 0.16 0.18 0.19 0.22 0.24 0.25 0.26 0.23 0.19 0.17 0.19 0.20 0.20 0.20 0.24 0.29 0.32 0.34 0.35 0.36 0.37 0.39 0.40 0.45 0.49 0.52 0.57 0.62
0.77 0.96 0.84 0.65 0.57 0.64 0.61 0.49 0.61 1.22 1.48 0.80 0.39 0.19 0.12 0.14 0.20 0.21 0.20 0.22 0.25 0.27 0.26 0.26 0.28 0.22 0.20 0.20 0.17 0.17 0.20 0.24 0.28 0.28 0.29 0.30 0.33 0.35 0.36 0.37 0.40 0.44 0.49 0.56
0.74 1.00 0.69 0.41 0.33 0.50 0.51 0.49 0.60 0.89 0.87 0.80 0.38 0.21 0.17 0.20 0.26 0.25 0.21 0.19 0.20 0.22 0.24 0.25 0.26 0.26 0.23 0.20 0.19 0.17 0.17 0.20 0.23 0.26 0.26 0.28 0.31 0.33 0.35 0.36 0.38 0.40 0.42 0.50
0.56 0.82 0.73 0.49 0.29 0.40 0.47 0.44 0.46 0.51 0.54 0.53 0.39 0.31 0.22 0.22 0.23 0.23 0.19 0.17 0.17 0.18 0.21 0.22 0.21 0.23 0.22 0.22 0.21 0.20 0.20 0.20 0.21 0.24 0.24 0.24 0.28 0.30 0.33 0.36 0.38 0.38 0.41 0.48
0.45 0.69 0.90 0.60 0.33 0.45 0.51 0.42 0.44 0.43 0.41 0.44 0.46 0.36 0.26 0.27 0.25 0.24 0.20 0.17 0.16 0.14 0.14 0.16 0.18 0.20 0.20 0.19 0.19 0.17 0.18 0.18 0.20 0.22 0.22 0.24 0.27 0.31 0.33 0.36 0.41 0.46 0.51 0.59
0.28 0.58 0.94 0.67 0.44 0.56 0.38 0.30 0.32 0.36 0.36 0.38 0.36 0.28 0.24 0.24 0.24 0.23 0.20 0.16 0.13 0.11 0.09 0.09 0.12 0.13 0.13 0.13 0.14 0.16 0.15 0.16 0.18 0.21 0.27 0.28 0.29 0.37 0.44 0.44 0.48 0.56 0.63 0.70
0.13 0.45 0.84 0.73 0.52 0.32 0.21 0.20 0.24 0.32 0.35 0.32 0.24 0.18 0.16 0.18 0.22 0.22 0.18 0.14 0.12 0.10 0.09 0.09 0.10 0.12 0.12 0.13 0.14 0.17 0.18 0.18 0.19 0.22 0.28 0.32 0.34 0.43 0.53 0.53 0.55 0.59 0.65 0.72
0.12 0.32 0.75 0.71 0.58 0.26 0.14 0.09 0.10 0.21 0.34 0.23 0.20 0.19 0.19 0.21 0.26 0.22 0.16 0.14 0.14 0.12 0.11 0.11 0.12 0.13 0.15 0.17 0.19 0.22 0.24 0.29 0.31 0.32 0.37 0.43 0.49 0.57 0.61 0.60 0.59 0.57 0.56 0.58
0.23 0.45 0.65 0.57 0.51 0.17 0.08 0.06 0.09 0.27 0.31 0.15 0.15 0.17 0.20 0.21 0.20 0.18 0.13 0.11 0.14 0.16 0.16 0.15 0.16 0.18 0.20 0.21 0.22 0.25 0.28 0.38 0.43 0.45 0.48 0.50 0.55 0.58 0.57 0.55 0.52 0.47 0.42 0.41
0.14 0.24 0.27 0.32 0.46 0.24 0.09 0.08 0.15 0.20 0.14 0.14 0.16 0.18 0.18 0.18 0.15 0.13 0.15 0.13 0.11 0.12 0.14 0.16 0.19 0.21 0.23 0.27 0.31 0.33 0.35 0.40 0.43 0.44 0.45 0.44 0.44 0.44 0.45 0.44 0.43 0.39 0.36 0.34
0.10 0.13 0.15 0.18 0.18 0.12 0.11 0.11 0.11 0.10 0.11 0.11 0.13 0.14 0.15 0.15 0.15 0.13 0.11 0.11 0.10 0.11 0.12 0.15 0.20 0.24 0.27 0.29 0.31 0.34 0.34 0.34 0.34 0.35 0.35 0.33 0.30 0.29 0.30 0.31 0.32 0.32 0.31 0.30
0.12 0.10 0.13 0.13 0.09 0.07 0.08 0.07 0.07 0.07 0.06 0.05 0.06 0.08 0.12 0.15 0.15 0.14 0.11 0.10 0.08 0.09 0.10 0.12 0.14 0.16 0.19 0.21 0.22 0.24 0.23 0.23 0.22 0.22 0.23 0.24 0.22 0.21 0.23 0.24 0.27 0.28 0.28 0.28
0.15 0.14 0.16 0.14 0.08 0.07 0.06 0.05 0.05 0.05 0.04 0.04 0.03 0.04 0.07 0.09 0.09 0.10 0.11 0.09 0.09 0.08 0.09 0.09 0.09 0.10 0.11 0.12 0.13 0.14 0.14 0.15 0.17 0.17 0.17 0.19 0.20 0.21 0.22 0.25 0.27 0.31 0.31 0.35
0.06 0.09 0.16 0.16 0.09 0.11 0.10 0.07 0.06 0.06 0.05 0.04 0.04 0.04 0.05 0.06 0.06 0.06 0.06 0.06 0.07 0.08 0.08 0.08 0.08 0.09 0.12 0.12 0.11 0.11 0.11 0.12 0.15 0.17 0.18 0.19 0.20 0.21 0.22 0.24 0.27 0.31 0.33 0.36

GEFSCGP_prec_meanprecacc_180.txt.gz
Total_Precipitation_Accumulation
1.79 1.73 1.29 0.77 0.57 0.45 0.43 0.47 0.43 0.39 0.36 0.47 0.51 0.51 0.53 0.50 0.43 0.42 0.44 0.47 0.53 0.62 0.75 0.90 1.04 1.28 1.52 1.72 1.91 1.91 2.00 2.13 2.23 2.27 2.18 2.01 1.84 1.71 1.63 1.51 1.47 1.38 1.26 1.19
1.65 1.30 0.73 0.56 0.55 0.53 0.50 0.53 0.46 0.40 0.36 0.43 0.45 0.45 0.50 0.54 0.49 0.41 0.37 0.39 0.43 0.55 0.61 0.70 0.85 1.05 1.23 1.38 1.51 1.60 1.68 1.82 1.94 1.98 1.98 2.01 2.06 1.89 1.71 1.57 1.48 1.45 1.39 1.30
1.20 0.79 0.54 0.59 0.64 0.66 0.58 0.53 0.46 0.43 0.39 0.43 0.44 0.46 0.46 0.49 0.49 0.45 0.41 0.40 0.44 0.55 0.55 0.58 0.66 0.87 0.99 1.09 1.23 1.33 1.45 1.54 1.57 1.77 1.96 2.03 2.08 2.00 1.73 1.49 1.36 1.42 1.52 1.50
1.00 0.61 0.61 0.72 0.66 0.63 0.65 0.44 0.43 0.43 0.55 0.63 0.45 0.57 0.45 0.43 0.45 0.48 0.47 0.47 0.52 0.57 0.60 0.62 0.65 0.77 0.83 0.88 1.04 1.16 1.28 1.38 1.41 1.56 1.66 1.66 1.57 1.52 1.43 1.38 1.41 1.46 1.54 1.58
1.02 0.65 0.67 0.78 0.58 0.55 0.56 0.42 0.48 0.52 0.58 0.60 0.40 0.49 0.48 0.42 0.50 0.53 0.51 0.53 0.57 0.55 0.54 0.62 0.64 0.68 0.74 0.73 0.80 0.96 1.15 1.22 1.25 1.32 1.40 1.51 1.49 1.43 1.45 1.46 1.42 1.38 1.35 1.44
0.77 0.66 0.72 0.68 0.51 0.53 0.55 0.64 0.71 0.71 0.84 0.82 0.38 0.41 0.46 0.45 0.53 0.52 0.46 0.51 0.53 0.52 0.54 0.56 0.53 0.57 0.68 0.65 0.63 0.75 0.90 1.11 1.19 1.22 1.28 1.35 1.35 1.30 1.30 1.37 1.38 1.39 1.33 1.27
0.95 0.76 0.67 0.69 0.83 0.81 0.85 1.22 1.49 1.32 1.14 0.64 0.24 0.30 0.43 0.43 0.45 0.49 0.47 0.44 0.46 0.49 0.50 0.53 0.53 0.59 0.64 0.63 0.58 0.60 0.69 0.88 1.04 1.07 1.07 1.13 1.24 1.24 1.18 1.22 1.30 1.31 1.27 1.21
0.99 0.89 0.59 0.68 0.95 0.99 0.86 1.05 1.22 0.94 0.61 0.32 0.20 0.28 0.35 0.35 0.37 0.37 0.33 0.32 0.38 0.43 0.43 0.47 0.49 0.52 0.50 0.50 0.54 0.56 0.61 0.68 0.76 0.80 0.86 0.94 1.03 1.11 1.07 1.04 1.09 1.13 1.08 1.09
0.72 0.66 0.42 0.48 0.63 0.75 0.83 0.81 0.68 0.81 0.53 0.35 0.22 0.23 0.26 0.26 0.26 0.27 0.27 0.28 0.32 0.33 0.33 0.35 0.37 0.37 0.34 0.36 0.42 0.48 0.50 0.53 0.59 0.61 0.66 0.77 0.81 0.91 1.00 1.01 1.02 1.06 1.06 1.01
0.63 0.75 0.48 0.50 0.72 0.81 0.79 0.69 0.78 1.17 0.87 0.48 0.22 0.19 0.26 0.25 0.25 0.27 0.27 0.26 0.25 0.24 0.26 0.28 0.31 0.30 0.27 0.27 0.28 0.31 0.38 0.48 0.54 0.51 0.54 0.62 0.69 0.74 0.81 0.88 0.92 0.91 0.89 0.88
0.56 0.86 0.66 0.65 0.82 0.78 0.76 0.86 0.90 0.93 0.71 0.62 0.38 0.24 0.22 0.23 0.24 0.25 0.25 0.23 0.21 0.20 0.23 0.24 0.24 0.23 0.24 0.22 0.22 0.25 0.30 0.38 0.42 0.44 0.46 0.49 0.54 0.59 0.63 0.68 0.72 0.72 0.73 0.74
0.50 0.88 0.75 0.53 0.46 0.50 0.62 0.66 0.80 1.08 0.77 0.60 0.50 0.29 0.19 0.19 0.20 0.22 0.22 0.22 0.23 0.23 0.24 0.22 0.19 0.18 0.20 0.20 0.21 0.23 0.27 0.32 0.36 0.38 0.41 0.44 0.46 0.47 0.51 0.57 0.57 0.58 0.60 0.61
0.54 0.93 0.96 0.68 0.59 0.63 0.70 0.59 0.61 0.92 1.17 0.90 0.68 0.31 0.16 0.15 0.16 0.18 0.19 0.22 0.24 0.25 0.26 0.24 0.20 0.18 0.19 0.20 0.21 0.21 0.25 0.29 0.32 0.34 0.35 0.36 0.38 0.39 0.41 0.46 0.50 0.52 0.57 0.62
0.78 0.98 0.86 0.66 0.58 0.65 0.62 0.49 0.62 1.24 1.51 0.82 0.40 0.19 0.12 0.14 0.21 0.21 0.21 0.22 0.25 0.27 0.26 0.26 0.28 0.23 0.20 0.20 0.18 0.18 0.21 0.25 0.28 0.29 0.30 0.30 0.34 0.36 0.36 0.37 0.40 0.45 0.50 0.56
0.75 1.01 0.70 0.42 0.33 0.50 0.52 0.49 0.60 0.91 0.88 0.81 0.38 0.21 0.17 0.20 0.26 0.25 0.22 0.19 0.20 0.22 0.24 0.25 0.26 0.26 0.23 0.20 0.19 0.17 0.18 0.20 0.24 0.26 0.27 0.28 0.31 0.33 0.35 0.36 0.38 0.40 0.42 0.50
0.57 0.84 0.74 0.50 0.29 0.41 0.48 0.44 0.46 0.52 0.54 0.54 0.39 0.32 0.22 0.22 0.23 0.23 0.20 0.17 0.17 0.18 0.21 0.22 0.21 0.23 0.22 0.22 0.21 0.20 0.20 0.20 0.21 0.24 0.24 0.25 0.28 0.31 0.33 0.36 0.38 0.38 0.41 0.48
0.46 0.70 0.92 0.61 0.33 0.45 0.52 0.43 0.44 0.44 0.41 0.44 0.47 0.37 0.27 0.27 0.25 0.24 0.21 0.17 0.16 0.14 0.14 0.17 0.18 0.20 0.20 0.19 0.19 0.18 0.18 0.18 0.20 0.22 0.23 0.24 0.27 0.31 0.33 0.36 0.41 0.46 0.51 0.59
0.29 0.59 0.97 0.69 0.46 0.58 0.39 0.30 0.32 0.36 0.36 0.39 0.37 0.29 0.24 0.24 0.24 0.23 0.20 0.16 0.13 0.11 0.09 0.10 0.12 0.13 0.13 0.13 0.14 0.16 0.15 0.16 0.18 0.22 0.27 0.28 0.29 0.38 0.44 0.45 0.48 0.56 0.63 0.70
0.13 0.46 0.87 0.77 0.55 0.32 0.21 0.20 0.24 0.32 0.37 0.33 0.25 0.18 0.16 0.18 0.23 0.22 0.18 0.14 0.12 0.10 0.09 0.09 0.10 0.12 0.12 0.13 0.14 0.17 0.18 0.19 0.19 0.23 0.29 0.33 0.34 0.43 0.53 0.53 0.55 0.59 0.65 0.72
0.12 0.33 0.79 0.75 0.62 0.28 0.16 0.09 0.11 0.22 0.37 0.25 0.21 0.20 0.20 0.22 0.27 0.23 0.16 0.14 0.14 0.13 0.11 0.12 0.12 0.13 0.15 0.18 0.19 0.22 0.24 0.29 0.32 0.33 0.37 0.43 0.49 0.57 0.61 0.61 0.59 0.57 0.56 0.58
0.23 0.46 0.68 0.61 0.56 0.21 0.11 0.07 0.09 0.30 0.36 0.17 0.16 0.17 0.20 0.22 0.21 0.18 0.13 0.11 0.14 0.16 0.16 0.15 0.16 0.18 0.21 0.21 0.22 0.25 0.29 0.38 0.43 0.45 0.49 0.51 0.55 0.58 0.57 0.56 0.53 0.47 0.42 0.41
0.14 0.25 0.30 0.35 0.50 0.27 0.11 0.09 0.17 0.24 0.16 0.15 0.16 0.18 0.19 0.18 0.15 0.13 0.15 0.13 0.11 0.12 0.14 0.16 0.19 0.21 0.24 0.27 0.31 0.33 0.35 0.40 0.43 0.44 0.45 0.44 0.44 0.44 0.46 0.45 0.44 0.39 0.36 0.34
0.10 0.14 0.17 0.20 0.21 0.15 0.12 0.12 0.12 0.11 0.12 0.11 0.13 0.15 0.15 0.15 0.15 0.13 0.11 0.11 0.10 0.11 0.12 0.16 0.20 0.24 0.28 0.29 0.32 0.34 0.34 0.34 0.34 0.35 0.35 0.33 0.30 0.29 0.31 0.31 0.33 0.32 0.31 0.30
0.13 0.10 0.14 0.14 0.10 0.08 0.09 0.08 0.08 0.07 0.07 0.06 0.06 0.08 0.13 0.16 0.15 0.14 0.12 0.10 0.08 0.09 0.10 0.12 0.14 0.16 0.19 0.21 0.22 0.24 0.23 0.23 0.23 0.22 0.23 0.24 0.22 0.22 0.23 0.24 0.27 0.28 0.28 0.28
0.16 0.15 0.17 0.15 0.09 0.08 0.07 0.06 0.06 0.06 0.06 0.05 0.04 0.05 0.08 0.10 0.10 0.11 0.11 0.10 0.09 0.09 0.09 0.09 0.09 0.10 0.11 0.12 0.13 0.14 0.14 0.15 0.17 0.17 0.18 0.19 0.20 0.21 0.23 0.25 0.28 0.31 0.31 0.35
0.06 0.10 0.17 0.17 0.10 0.12 0.11 0.07 0.07 0.07 0.06 0.06 0.05 0.05 0.05 0.07 0.07 0.06 0.07 0.06 0.07 0.08 0.08 0.09 0.08 0.09 0.12 0.12 0.11 0.11 0.11 0.12 0.15 0.17 0.18 0.19 0.20 0.21 0.22 0.24 0.27 0.31 0.33 0.36

GEFSCGP_prec_meanprecacc_186.txt.gz
Total_Precipitation_Accumulation
1.79 1.73 1.30 0.78 0.58 0.46 0.44 0.48 0.44 0.40 0.37 0.49 0.53 0.52 0.53 0.51 0.48 0.49 0.50 0.51 0.57 0.68 0.81 0.96 1.10 1.36 1.58 1.79 2.01 2.04 2.23 2.43 2.50 2.47 2.33 2.14 1.97 1.85 1.74 1.63 1.57 1.45 1.31 1.24
1.66 1.30 0.74 0.56 0.56 0.54 0.51 0.53 0.46 0.41 0.37 0.44 0.47 0.46 0.51 0.55 0.52 0.45 0.42 0.43 0.46 0.58 0.64 0.76 0.91 1.13 1.29 1.43 1.57 1.69 1.82 2.04 2.20 2.22 2.15 2.16 2.20 2.03 1.82 1.68 1.60 1.54 1.46 1.37
1.20 0.79 0.55 0.59 0.65 0.67 0.58 0.53 0.46 0.43 0.39 0.44 0.44 0.47 0.47 0.50 0.51 0.47 0.43 0.42 0.46 0.57 0.56 0.61 0.71 0.93 1.05 1.14 1.27 1.39 1.52 1.65 1.74 1.97 2.15 2.17 2.21 2.13 1.85 1.60 1.48 1.51 1.59 1.57
1.00 0.61 0.61 0.72 0.66 0.64 0.65 0.44 0.43 0.43 0.56 0.63 0.45 0.57 0.45 0.43 0.46 0.49 0.47 0.47 0.53 0.58 0.61 0.63 0.67 0.81 0.87 0.91 1.07 1.20 1.34 1.45 1.50 1.68 1.82 1.84 1.70 1.64 1.55 1.48 1.50 1.54 1.59 1.65
1.02 0.65 0.67 0.78 0.58 0.55 0.56 0.42 0.48 0.52 0.58 0.60 0.40 0.49 0.48 0.42 0.51 0.54 0.52 0.53 0.58 0.56 0.54 0.62 0.64 0.69 0.75 0.74 0.82 0.99 1.19 1.28 1.32 1.40 1.49 1.64 1.64 1.57 1.58 1.56 1.50 1.44 1.40 1.50
0.77 0.66 0.72 0.68 0.51 0.53 0.56 0.64 0.71 0.71 0.84 0.83 0.38 0.41 0.46 0.45 0.53 0.52 0.46 0.51 0.53 0.52 0.54 0.56 0.53 0.57 0.68 0.66 0.64 0.77 0.93 1.16 1.25 1.29 1.34 1.43 1.45 1.40 1.41 1.48 1.47 1.46 1.38 1.33
0.95 0.76 0.67 0.69 0.83 0.81 0.86 1.22 1.49 1.33 1.15 0.64 0.24 0.30 0.43 0.43 0.45 0.49 0.47 0.44 0.46 0.49 0.50 0.53 0.53 0.59 0.64 0.63 0.59 0.61 0.71 0.91 1.07 1.11 1.12 1.18 1.30 1.31 1.26 1.30 1.37 1.38 1.33 1.27
0.99 0.89 0.59 0.68 0.95 1.00 0.86 1.05 1.23 0.95 0.61 0.32 0.20 0.28 0.35 0.35 0.37 0.37 0.33 0.32 0.38 0.43 0.43 0.47 0.49 0.52 0.50 0.50 0.54 0.57 0.63 0.69 0.76 0.81 0.88 0.97 1.06 1.15 1.12 1.09 1.15 1.19 1.15 1.15
0.73 0.67 0.42 0.48 0.63 0.75 0.83 0.81 0.69 0.81 0.54 0.35 0.22 0.23 0.26 0.26 0.26 0.27 0.27 0.28 0.32 0.33 0.33 0.35 0.37 0.37 0.34 0.36 0.43 0.50 0.52 0.55 0.60 0.62 0.66 0.78 0.83 0.93 1.03 1.05 1.06 1.10 1.10 1.08
0.64 0.76 0.48 0.50 0.72 0.81 0.80 0.69 0.78 1.18 0.88 0.48 0.22 0.19 0.26 0.25 0.25 0.27 0.27 0.26 0.25 0.24 0.26 0.28 0.31 0.30 0.28 0.27 0.29 0.32 0.40 0.51 0.56 0.52 0.55 0.63 0.70 0.76 0.84 0.92 0.95 0.94 0.92 0.91
0.57 0.86 0.66 0.65 0.82 0.78 0.77 0.87 0.90 0.94 0.72 0.63 0.39 0.24 0.22 0.23 0.24 0.25 0.25 0.23 0.21 0.20 0.23 0.24 0.24 0.23 0.24 0.22 0.22 0.25 0.32 0.41 0.46 0.46 0.47 0.50 0.55 0.60 0.65 0.70 0.75 0.75 0.75 0.77
0.50 0.89 0.76 0.53 0.46 0.50 0.63 0.66 0.81 1.10 0.78 0.60 0.50 0.29 0.19 0.19 0.20 0.22 0.22 0.22 0.23 0.23 0.24 0.22 0.19 0.18 0.20 0.21 0.22 0.23 0.28 0.34 0.39 0.41 0.43 0.45 0.48 0.49 0.53 0.59 0.59 0.60 0.62 0.63
0.54 0.95 0.97 0.68 0.59 0.63 0.70 0.59 0.62 0.93 1.18 0.91 0.69 0.32 0.16 0.15 0.16 0.18 0.19 0.22 0.24 0.25 0.26 0.24 0.20 0.18 0.19 0.20 0.22 0.22 0.25 0.31 0.35 0.38 0.39 0.39 0.40 0.42 0.44 0.50 0.53 0.54 0.59 0.63
0.79 0.99 0.87 0.67 0.59 0.66 0.63 0.50 0.63 1.24 1.52 0.82 0.40 0.20 0.12 0.15 0.21 0.21 0.21 0.22 0.25 0.27 0.26 0.26 0.28 0.23 0.20 0.20 0.18 0.18 0.21 0.25 0.29 0.32 0.35 0.35 0.38 0.39 0.40 0.42 0.45 0.49 0.53 0.58
0.76 1.02 0.70 0.43 0.33 0.51 0.52 0.50 0.61 0.91 0.89 0.82 0.39 0.22 0.18 0.21 0.27 0.26 0.23 0.20 0.21 0.22 0.24 0.25 0.26 0.26 0.23 0.20 0.19 0.17 0.18 0.21 0.24 0.27 0.30 0.32 0.37 0.39 0.40 0.41 0.43 0.46 0.48 0.53
0.58 0.85 0.75 0.50 0.29 0.41 0.48 0.44 0.47 0.52 0.55 0.55 0.39 0.32 0.23 0.22 0.24 0.23 0.20 0.18 0.18 0.19 0.21 0.22 0.21 0.23 0.22 0.22 0.21 0.20 0.20 0.20 0.22 0.25 0.25 0.27 0.31 0.34 0.37 0.40 0.42 0.43 0.47 0.53
0.47 0.72 0.93 0.62 0.33 0.46 0.52 0.43 0.44 0.44 0.41 0.45 0.48 0.38 0.27 0.27 0.26 0.24 0.21 0.18 0.16 0.14 0.14 0.17 0.18 0.20 0.20 0.19 0.19 0.18 0.18 0.18 0.20 0.22 0.23 0.25 0.28 0.33 0.35 0.39 0.44 0.50 0.56 0.64
0.29 0.60 0.99 0.70 0.46 0.58 0.39 0.30 0.32 0.37 0.37 0.40 0.38 0.29 0.24 0.24 0.25 0.24 0.20 0.16 0.14 0.11 0.09 0.10 0.12 0.13 0.13 0.13 0.14 0.16 0.15 0.16 0.18 0.22 0.27 0.29 0.30 0.39 0.46 0.46 0.50 0.58 0.66 0.73
0.14 0.46 0.90 0.79 0.57 0.33 0.21 0.21 0.24 0.32 0.37 0.34 0.26 0.19 0.17 0.18 0.23 0.22 0.18 0.14 0.12 0.10 0.09 0.09 0.10 0.12 0.12 0.13 0.14 0.17 0.18 0.19 0.19 0.23 0.29 0.33 0.34 0.44 0.54 0.54 0.56 0.61 0.67 0.74
0.12 0.34 0.81 0.78 0.65 0.29 0.16 0.10 0.11 0.22 0.39 0.26 0.22 0.20 0.20 0.22 0.27 0.23 0.16 0.14 0.14 0.13 0.11 0.12 0.12 0.13 0.16 0.18 0.19 0.22 0.25 0.29 0.32 0.33 0.37 0.43 0.49 0.57 0.62 0.61 0.60 0.58 0.58 0.60
0.24 0.47 0.71 0.64 0.59 0.22 0.11 0.07 0.10 0.31 0.38 0.18 0.16 0.17 0.20 0.22 0.21 0.18 0.13 0.11 0.14 0.16 0.16 0.15 0.16 0.19 0.21 0.21 0.23 0.26 0.29 0.38 0.43 0.45 0.49 0.51 0.55 0.58 0.58 0.57 0.53 0.48 0.44 0.42
0.15 0.26 0.31 0.37 0.55 0.30 0.12 0.10 0.18 0.25 0.16 0.15 0.17 0.18 0.19 0.18 0.15 0.13 0.15 0.13 0.11 0.12 0.14 0.16 0.19 0.22 0.25 0.28 0.32 0.34 0.36 0.41 0.44 0.45 0.45 0.45 0.44 0.44 0.46 0.45 0.44 0.40 0.37 0.35
0.12 0.16 0.19 0.23 0.24 0.16 0.13 0.12 0.13 0.11 0.12 0.11 0.13 0.15 0.15 0.16 0.15 0.13 0.11 0.11 0.10 0.11 0.12 0.16 0.20 0.25 0.28 0.29 0.32 0.34 0.34 0.34 0.35 0.35 0.35 0.33 0.31 0.30 0.31 0.32 0.33 0.33 0.32 0.31
0.15 0.12 0.16 0.17 0.13 0.10 0.10 0.09 0.08 0.07 0.07 0.06 0.06 0.08 0.13 0.16 0.15 0.14 0.12 0.10 0.09 0.09 0.10 0.12 0.15 0.17 0.20 0.21 0.23 0.24 0.24 0.23 0.23 0.22 0.24 0.24 0.22 0.22 0.24 0.25 0.28 0.29 0.29 0.29
0.17 0.16 0.18 0.17 0.11 0.09 0.08 0.07 0.06 0.06 0.06 0.05 0.04 0.05 0.08 0.10 0.10 0.11 0.12 0.10 0.10 0.09 0.09 0.10 0.10 0.11 0.12 0.13 0.13 0.14 0.14 0.16 0.17 0.17 0.18 0.19 0.20 0.21 0.23 0.26 0.29 0.32 0.32 0.36
0.07 0.11 0.18 0.18 0.11 0.12 0.11 0.08 0.07 0.07 0.06 0.06 0.06 0.05 0.06 0.07 0.07 0.07 0.07 0.07 0.08 0.09 0.09 0.09 0.09 0.10 0.12 0.12 0.11 0.12 0.11 0.12 0.15 0.18 0.18 0.19 0.21 0.21 0.22 0.24 0.28 0.32 0.34 0.37

GEFSCGP_prec_meanprecacc_192.txt.gz
Total_Precipitation_Accumulation
1.79 1.73 1.30 0.78 0.58 0.46 0.44 0.48 0.44 0.41 0.38 0.49 0.54 0.53 0.55 0.52 0.49 0.50 0.51 0.53 0.62 0.75 0.86 1.00 1.13 1.39 1.61 1.84 2.06 2.09 2.29 2.51 2.64 2.70 2.57 2.37 2.16 2.01 1.85 1.71 1.62 1.52 1.41 1.34
1.66 1.30 0.74 0.56 0.56 0.54 0.51 0.54 0.47 0.42 0.38 0.45 0.48 0.47 0.52 0.56 0.54 0.46 0.43 0.44 0.49 0.62 0.70 0.80 0.94 1.16 1.32 1.48 1.63 1.74 1.87 2.12 2.33 2.41 2.35 2.34 2.37 2.19 1.95 1.78 1.66 1.61 1.55 1.47
1.20 0.79 0.55 0.60 0.65 0.68 0.59 0.55 0.48 0.44 0.40 0.44 0.45 0.48 0.47 0.50 0.52 0.48 0.44 0.44 0.48 0.59 0.60 0.65 0.74 0.96 1.08 1.18 1.33 1.43 1.55 1.70 1.83 2.15 2.36 2.35 2.40 2.32 2.02 1.74 1.56 1.59 1.69 1.68
1.00 0.61 0.61 0.72 0.66 0.64 0.66 0.45 0.43 0.44 0.57 0.64 0.45 0.58 0.46 0.43 0.46 0.50 0.48 0.48 0.55 0.60 0.62 0.65 0.70 0.83 0.89 0.94 1.10 1.24 1.37 1.47 1.55 1.80 2.04 2.02 1.90 1.85 1.76 1.67 1.65 1.65 1.70 1.77
1.02 0.65 0.67 0.78 0.58 0.56 0.57 0.42 0.48 0.52 0.60 0.62 0.41 0.49 0.49 0.42 0.51 0.54 0.52 0.54 0.59 0.57 0.56 0.64 0.66 0.71 0.77 0.77 0.85 1.01 1.22 1.30 1.36 1.46 1.64 1.84 1.83 1.76 1.78 1.77 1.70 1.59 1.53 1.62
0.77 0.66 0.72 0.68 0.51 0.54 0.56 0.65 0.71 0.71 0.85 0.85 0.39 0.41 0.46 0.46 0.53 0.53 0.48 0.52 0.54 0.52 0.55 0.57 0.54 0.57 0.69 0.67 0.65 0.78 0.95 1.18 1.27 1.33 1.42 1.56 1.62 1.57 1.56 1.63 1.64 1.63 1.53 1.46
0.95 0.76 0.67 0.69 0.83 0.81 0.86 1.23 1.50 1.33 1.16 0.65 0.24 0.31 0.43 0.43 0.45 0.49 0.47 0.45 0.46 0.50 0.50 0.53 0.53 0.59 0.64 0.63 0.59 0.61 0.71 0.92 1.09 1.13 1.16 1.24 1.41 1.45 1.41 1.44 1.51 1.53 1.47 1.39
0.99 0.89 0.60 0.68 0.95 1.00 0.87 1.06 1.24 0.95 0.61 0.32 0.20 0.28 0.36 0.35 0.37 0.37 0.33 0.32 0.38 0.43 0.43 0.47 0.49 0.52 0.50 0.51 0.55 0.58 0.63 0.70 0.77 0.82 0.90 0.99 1.10 1.21 1.21 1.19 1.26 1.31 1.28 1.27
0.73 0.67 0.42 0.48 0.63 0.75 0.84 0.82 0.70 0.83 0.55 0.36 0.22 0.23 0.26 0.26 0.26 0.27 0.27 0.28 0.32 0.33 0.33 0.35 0.37 0.37 0.34 0.36 0.43 0.50 0.53 0.56 0.61 0.62 0.67 0.78 0.84 0.96 1.07 1.10 1.12 1.18 1.19 1.16
0.64 0.76 0.48 0.50 0.72 0.81 0.80 0.69 0.79 1.20 0.90 0.49 0.22 0.19 0.26 0.26 0.25 0.27 0.27 0.26 0.25 0.24 0.26 0.29 0.32 0.31 0.28 0.27 0.29 0.33 0.41 0.52 0.57 0.53 0.55 0.63 0.71 0.77 0.86 0.94 0.99 0.98 0.97 0.97
0.57 0.87 0.66 0.65 0.82 0.78 0.77 0.87 0.91 0.95 0.74 0.65 0.40 0.25 0.23 0.23 0.24 0.25 0.25 0.23 0.21 0.20 0.23 0.24 0.24 0.24 0.25 0.23 0.22 0.25 0.32 0.42 0.48 0.47 0.48 0.51 0.56 0.61 0.66 0.71 0.77 0.78 0.78 0.79
0.51 0.89 0.76 0.53 0.46 0.50 0.63 0.66 0.81 1.10 0.79 0.61 0.51 0.30 0.19 0.19 0.20 0.22 0.22 0.23 0.23 0.23 0.24 0.22 0.20 0.19 0.21 0.21 0.22 0.23 0.29 0.35 0.41 0.43 0.43 0.46 0.49 0.50 0.54 0.60 0.60 0.62 0.64 0.65
0.55 0.96 0.99 0.69 0.59 0.63 0.70 0.59 0.62 0.93 1.19 0.91 0.69 0.32 0.16 0.15 0.16 0.18 0.20 0.22 0.25 0.26 0.26 0.24 0.20 0.19 0.21 0.21 0.22 0.22 0.26 0.32 0.36 0.40 0.40 0.41 0.42 0.43 0.45 0.51 0.54 0.56 0.61 0.65
0.80 1.00 0.88 0.68 0.60 0.66 0.63 0.50 0.63 1.25 1.53 0.83 0.40 0.20 0.13 0.15 0.21 0.21 0.21 0.23 0.26 0.28 0.26 0.27 0.28 0.24 0.22 0.22 0.19 0.19 0.21 0.26 0.31 0.34 0.36 0.37 0.41 0.42 0.41 0.43 0.47 0.51 0.55 0.60
0.77 1.03 0.71 0.43 0.34 0.51 0.52 0.50 0.61 0.92 0.90 0.83 0.39 0.22 0.18 0.21 0.27 0.26 0.24 0.21 0.21 0.23 0.24 0.25 0.26 0.26 0.25 0.23 0.21 0.18 0.18 0.21 0.25 0.29 0.32 0.35 0.39 0.41 0.43 0.43 0.45 0.48 0.50 0.55
0.58 0.85 0.75 0.50 0.30 0.41 0.48 0.44 0.47 0.52 0.55 0.55 0.40 0.32 0.23 0.23 0.24 0.24 0.21 0.19 0.19 0.20 0.22 0.23 0.21 0.23 0.22 0.24 0.24 0.22 0.21 0.21 0.23 0.26 0.27 0.30 0.34 0.37 0.41 0.44 0.44 0.45 0.49 0.55
0.48 0.73 0.94 0.62 0.33 0.46 0.52 0.43 0.44 0.44 0.41 0.45 0.48 0.38 0.27 0.27 0.26 0.24 0.22 0.18 0.17 0.15 0.15 0.17 0.19 0.21 0.20 0.20 0.20 0.19 0.19 0.19 0.21 0.24 0.25 0.28 0.31 0.36 0.39 0.45 0.48 0.53 0.59 0.66
0.29 0.61 1.00 0.71 0.47 0.59 0.39 0.30 0.33 0.37 0.37 0.40 0.38 0.30 0.25 0.25 0.25 0.24 0.20 0.17 0.14 0.11 0.09 0.10 0.12 0.14 0.14 0.14 0.15 0.17 0.16 0.17 0.19 0.23 0.28 0.31 0.33 0.42 0.49 0.51 0.56 0.63 0.70 0.78
0.14 0.47 0.91 0.81 0.58 0.34 0.21 0.21 0.24 0.33 0.38 0.34 0.26 0.19 0.17 0.19 0.23 0.23 0.18 0.14 0.12 0.10 0.10 0.09 0.10 0.12 0.12 0.13 0.14 0.17 0.19 0.20 0.20 0.24 0.30 0.35 0.37 0.47 0.57 0.58 0.62 0.67 0.72 0.79
0.13 0.35 0.84 0.81 0.67 0.30 0.17 0.10 0.11 0.23 0.41 0.27 0.22 0.20 0.20 0.22 0.27 0.23 0.16 0.14 0.14 0.13 0.11 0.12 0.12 0.13 0.16 0.18 0.20 0.22 0.25 0.30 0.32 0.34 0.39 0.45 0.52 0.60 0.65 0.65 0.65 0.63 0.62 0.64
0.25 0.51 0.75 0.68 0.63 0.24 0.13 0.08 0.10 0.33 0.41 0.19 0.16 0.18 0.21 0.22 0.21 0.18 0.13 0.11 0.14 0.16 0.16 0.15 0.16 0.19 0.21 0.22 0.24 0.27 0.30 0.39 0.44 0.46 0.50 0.52 0.57 0.61 0.60 0.60 0.57 0.54 0.48 0.46
0.16 0.29 0.35 0.41 0.59 0.33 0.13 0.11 0.20 0.27 0.18 0.16 0.17 0.19 0.19 0.19 0.15 0.14 0.15 0.13 0.11 0.12 0.14 0.16 0.19 0.22 0.25 0.28 0.33 0.35 0.38 0.43 0.45 0.46 0.47 0.47 0.46 0.47 0.49 0.48 0.48 0.44 0.42 0.39
0.14 0.19 0.22 0.26 0.27 0.18 0.14 0.13 0.14 0.13 0.13 0.12 0.14 0.15 0.16 0.16 0.16 0.13 0.12 0.11 0.10 0.11 0.13 0.16 0.20 0.25 0.28 0.29 0.33 0.35 0.36 0.36 0.36 0.37 0.37 0.35 0.32 0.32 0.34 0.34 0.36 0.37 0.36 0.35
0.17 0.14 0.19 0.22 0.17 0.13 0.12 0.10 0.09 0.08 0.08 0.07 0.07 0.09 0.13 0.16 0.15 0.14 0.12 0.11 0.09 0.09 0.10 0.13 0.15 0.17 0.20 0.22 0.24 0.25 0.25 0.25 0.24 0.24 0.25 0.25 0.23 0.24 0.26 0.27 0.30 0.31 0.32 0.32
0.19 0.18 0.21 0.20 0.14 0.12 0.10 0.08 0.07 0.07 0.06 0.05 0.04 0.05 0.08 0.10 0.10 0.11 0.12 0.10 0.10 0.09 0.10 0.10 0.10 0.11 0.13 0.14 0.15 0.16 0.15 0.16 0.18 0.18 0.18 0.19 0.21 0.22 0.24 0.27 0.30 0.34 0.34 0.39
0.08 0.12 0.19 0.20 0.12 0.13 0.12 0.08 0.07 0.08 0.07 0.06 0.06 0.06 0.06 0.07 0.07 0.07 0.07 0.07 0.08 0.09 0.10 0.10 0.10 0.12 0.14 0.14 0.13 0.12 0.12 0.13 0.16 0.18 0.18 0.20 0.21 0.21 0.23 0.25 0.29 0.34 0.36 0.40

GEFSCGP_prec_meanprecacc_198.txt.gz
Total_Precipitation_Accumulation
1.79 1.74 1.31 0.78 0.59 0.46 0.44 0.48 0.45 0.41 0.38 0.50 0.55 0.54 0.55 0.52 0.49 0.51 0.52 0.54 0.64 0.77 0.88 1.03 1.17 1.45 1.67 1.89 2.14 2.22 2.44 2.58 2.68 2.73 2.63 2.45 2.28 2.14 2.00 1.88 1.78 1.66 1.53 1.42
1.66 1.30 0.74 0.57 0.57 0.54 0.52 0.55 0.47 0.42 0.38 0.46 0.49 0.47 0.52 0.56 0.54 0.46 0.43 0.45 0.50 0.63 0.73 0.83 0.96 1.20 1.37 1.53 1.70 1.82 1.99 2.20 2.36 2.44 2.40 2.43 2.46 2.31 2.09 1.96 1.85 1.75 1.68 1.56
1.21 0.79 0.55 0.60 0.66 0.68 0.59 0.55 0.48 0.44 0.40 0.45 0.46 0.49 0.48 0.50 0.52 0.48 0.44 0.44 0.48 0.60 0.62 0.68 0.77 1.00 1.13 1.24 1.40 1.51 1.64 1.78 1.88 2.19 2.41 2.43 2.49 2.42 2.14 1.89 1.73 1.76 1.83 1.76
1.01 0.61 0.61 0.73 0.67 0.65 0.67 0.45 0.44 0.44 0.58 0.65 0.47 0.60 0.47 0.44 0.46 0.50 0.48 0.48 0.55 0.61 0.64 0.68 0.73 0.86 0.94 1.00 1.17 1.32 1.46 1.55 1.61 1.85 2.09 2.10 1.99 1.93 1.84 1.78 1.80 1.82 1.86 1.88
1.02 0.65 0.67 0.79 0.58 0.56 0.58 0.43 0.49 0.53 0.61 0.64 0.42 0.51 0.50 0.43 0.52 0.54 0.52 0.54 0.59 0.57 0.57 0.65 0.68 0.73 0.81 0.82 0.90 1.06 1.30 1.39 1.43 1.51 1.68 1.90 1.91 1.84 1.86 1.87 1.83 1.75 1.67 1.75
0.77 0.66 0.73 0.68 0.51 0.54 0.56 0.65 0.72 0.72 0.86 0.86 0.40 0.43 0.47 0.46 0.53 0.53 0.48 0.52 0.54 0.53 0.55 0.59 0.56 0.59 0.71 0.70 0.69 0.82 0.98 1.23 1.35 1.39 1.46 1.60 1.68 1.65 1.65 1.73 1.77 1.77 1.66 1.59
0.95 0.76 0.67 0.69 0.83 0.81 0.86 1.24 1.53 1.36 1.18 0.66 0.24 0.31 0.44 0.43 0.45 0.49 0.47 0.45 0.47 0.50 0.50 0.53 0.54 0.60 0.65 0.65 0.60 0.63 0.73 0.93 1.11 1.17 1.19 1.28 1.44 1.50 1.48 1.53 1.63 1.66 1.59 1.52
1.00 0.89 0.60 0.68 0.95 1.00 0.87 1.06 1.25 0.97 0.62 0.33 0.20 0.28 0.36 0.36 0.37 0.37 0.33 0.33 0.38 0.43 0.44 0.47 0.49 0.52 0.51 0.52 0.56 0.59 0.65 0.71 0.79 0.84 0.91 1.01 1.12 1.23 1.25 1.26 1.36 1.44 1.40 1.39
0.74 0.67 0.42 0.48 0.63 0.75 0.84 0.82 0.70 0.85 0.56 0.36 0.22 0.24 0.27 0.26 0.26 0.27 0.27 0.29 0.32 0.33 0.33 0.35 0.37 0.38 0.35 0.37 0.45 0.51 0.54 0.57 0.62 0.63 0.68 0.79 0.85 0.97 1.10 1.14 1.18 1.28 1.30 1.27
0.65 0.76 0.48 0.50 0.72 0.81 0.80 0.70 0.80 1.22 0.92 0.50 0.22 0.19 0.27 0.26 0.25 0.27 0.27 0.26 0.25 0.24 0.26 0.29 0.32 0.32 0.29 0.28 0.30 0.34 0.41 0.53 0.58 0.54 0.56 0.63 0.72 0.79 0.87 0.96 1.01 1.04 1.02 1.03
0.58 0.88 0.66 0.66 0.82 0.78 0.77 0.87 0.91 0.96 0.75 0.67 0.41 0.25 0.23 0.23 0.24 0.26 0.25 0.23 0.22 0.21 0.24 0.25 0.26 0.26 0.26 0.24 0.23 0.26 0.33 0.42 0.49 0.48 0.49 0.51 0.56 0.62 0.68 0.73 0.79 0.81 0.82 0.83
0.53 0.92 0.77 0.54 0.46 0.51 0.63 0.67 0.82 1.11 0.80 0.63 0.53 0.30 0.19 0.19 0.20 0.22 0.23 0.23 0.23 0.24 0.25 0.23 0.21 0.21 0.24 0.23 0.23 0.24 0.29 0.36 0.42 0.44 0.45 0.47 0.49 0.50 0.55 0.62 0.62 0.63 0.67 0.68
0.57 1.00 1.02 0.70 0.60 0.64 0.71 0.60 0.63 0.94 1.21 0.92 0.70 0.32 0.16 0.15 0.16 0.18 0.20 0.23 0.25 0.26 0.26 0.25 0.22 0.20 0.22 0.24 0.24 0.23 0.27 0.32 0.36 0.40 0.41 0.42 0.44 0.44 0.46 0.52 0.55 0.57 0.63 0.67
0.82 1.04 0.91 0.70 0.62 0.68 0.64 0.51 0.63 1.26 1.55 0.84 0.41 0.20 0.13 0.15 0.21 0.21 0.21 0.23 0.26 0.28 0.27 0.27 0.29 0.25 0.23 0.23 0.21 0.20 0.22 0.27 0.31 0.34 0.37 0.38 0.42 0.43 0.42 0.44 0.48 0.52 0.56 0.61
0.78 1.05 0.72 0.44 0.34 0.52 0.53 0.51 0.61 0.92 0.90 0.84 0.40 0.22 0.18 0.21 0.27 0.26 0.24 0.21 0.22 0.23 0.25 0.25 0.26 0.27 0.25 0.24 0.22 0.20 0.19 0.22 0.26 0.30 0.33 0.36 0.40 0.43 0.44 0.44 0.46 0.49 0.51 0.57
0.60 0.88 0.77 0.51 0.30 0.42 0.49 0.45 0.47 0.53 0.55 0.55 0.40 0.33 0.23 0.23 0.24 0.24 0.21 0.19 0.19 0.20 0.23 0.23 0.22 0.23 0.22 0.25 0.26 0.24 0.22 0.21 0.24 0.27 0.29 0.31 0.35 0.38 0.43 0.45 0.46 0.47 0.51 0.57
0.50 0.75 0.96 0.64 0.34 0.47 0.53 0.44 0.45 0.45 0.42 0.45 0.48 0.38 0.27 0.27 0.26 0.24 0.22 0.18 0.17 0.15 0.15 0.18 0.19 0.21 0.20 0.20 0.21 0.22 0.21 0.20 0.22 0.25 0.27 0.30 0.33 0.37 0.41 0.47 0.51 0.57 0.61 0.68
0.32 0.64 1.04 0.74 0.49 0.61 0.41 0.31 0.34 0.38 0.38 0.41 0.39 0.30 0.25 0.25 0.25 0.24 0.20 0.17 0.14 0.11 0.09 0.10 0.12 0.14 0.14 0.14 0.15 0.18 0.19 0.18 0.20 0.24 0.30 0.33 0.35 0.44 0.51 0.53 0.59 0.68 0.73 0.80
0.17 0.51 0.96 0.85 0.61 0.36 0.22 0.21 0.25 0.34 0.39 0.35 0.27 0.20 0.18 0.19 0.23 0.23 0.18 0.14 0.12 0.10 0.10 0.09 0.10 0.12 0.12 0.13 0.15 0.18 0.21 0.22 0.21 0.25 0.32 0.37 0.38 0.49 0.59 0.60 0.64 0.71 0.76 0.82
0.16 0.40 0.90 0.87 0.71 0.32 0.18 0.10 0.11 0.24 0.42 0.29 0.23 0.21 0.21 0.23 0.28 0.24 0.17 0.14 0.14 0.13 0.11 0.12 0.12 0.13 0.16 0.18 0.20 0.23 0.26 0.32 0.34 0.35 0.40 0.47 0.53 0.62 0.67 0.67 0.67 0.66 0.67 0.69
0.28 0.56 0.81 0.72 0.67 0.26 0.14 0.08 0.11 0.34 0.42 0.20 0.17 0.19 0.22 0.24 0.23 0.19 0.14 0.12 0.14 0.16 0.16 0.15 0.16 0.19 0.21 0.22 0.24 0.27 0.31 0.41 0.45 0.47 0.51 0.54 0.59 0.62 0.63 0.62 0.60 0.56 0.52 0.52
0.19 0.33 0.40 0.45 0.64 0.37 0.15 0.11 0.21 0.29 0.19 0.17 0.18 0.19 0.20 0.20 0.16 0.14 0.16 0.13 0.11 0.12 0.14 0.17 0.19 0.22 0.25 0.29 0.34 0.36 0.38 0.44 0.46 0.47 0.49 0.49 0.49 0.50 0.52 0.52 0.52 0.49 0.47 0.46
0.17 0.24 0.27 0.31 0.33 0.22 0.16 0.16 0.17 0.15 0.14 0.13 0.15 0.16 0.16 0.17 0.16 0.13 0.12 0.12 0.11 0.11 0.13 0.16 0.21 0.25 0.29 0.30 0.33 0.36 0.36 0.36 0.37 0.38 0.39 0.38 0.36 0.36 0.38 0.39 0.40 0.41 0.41 0.41
0.20 0.17 0.23 0.27 0.22 0.15 0.14 0.12 0.11 0.10 0.09 0.08 0.08 0.10 0.14 0.17 0.16 0.14 0.12 0.11 0.09 0.09 0.10 0.13 0.15 0.17 0.20 0.22 0.24 0.26 0.26 0.26 0.26 0.26 0.28 0.29 0.27 0.27 0.29 0.29 0.33 0.35 0.37 0.37
0.23 0.21 0.24 0.24 0.18 0.14 0.12 0.09 0.08 0.08 0.07 0.06 0.05 0.05 0.08 0.11 0.11 0.11 0.12 0.10 0.10 0.09 0.10 0.10 0.11 0.12 0.13 0.15 0.16 0.17 0.17 0.18 0.20 0.20 0.20 0.22 0.24 0.24 0.26 0.29 0.33 0.37 0.39 0.44
0.11 0.14 0.23 0.25 0.16 0.16 0.14 0.09 0.08 0.08 0.07 0.06 0.06 0.06 0.06 0.07 0.08 0.07 0.07 0.07 0.08 0.09 0.10 0.10 0.10 0.12 0.15 0.15 0.13 0.13 0.12 0.14 0.17 0.19 0.19 0.21 0.23 0.23 0.25 0.27 0.32 0.37 0.40 0.45

GEFSCGP_prec_meanprecacc_204.txt.gz
Total_Precipitation_Accumulation
1.80 1.75 1.31 0.78 0.59 0.47 0.44 0.49 0.45 0.41 0.39 0.51 0.56 0.54 0.55 0.52 0.50 0.52 0.53 0.55 0.65 0.78 0.89 1.06 1.23 1.53 1.74 1.99 2.23 2.29 2.51 2.68 2.81 2.82 2.67 2.48 2.31 2.18 2.05 1.94 1.86 1.74 1.63 1.54
1.67 1.31 0.74 0.57 0.57 0.55 0.52 0.55 0.47 0.42 0.38 0.46 0.50 0.48 0.53 0.57 0.54 0.47 0.43 0.45 0.51 0.64 0.74 0.85 1.00 1.26 1.45 1.61 1.78 1.89 2.05 2.27 2.47 2.54 2.44 2.46 2.50 2.35 2.15 2.03 1.93 1.84 1.76 1.67
1.21 0.79 0.55 0.60 0.67 0.69 0.60 0.55 0.48 0.45 0.41 0.46 0.48 0.50 0.49 0.51 0.52 0.49 0.44 0.44 0.49 0.61 0.63 0.69 0.80 1.03 1.18 1.30 1.48 1.58 1.69 1.84 1.94 2.26 2.46 2.47 2.54 2.47 2.20 1.96 1.80 1.84 1.91 1.87
1.01 0.61 0.61 0.73 0.67 0.65 0.67 0.45 0.44 0.45 0.60 0.67 0.49 0.62 0.48 0.44 0.46 0.50 0.49 0.49 0.57 0.62 0.65 0.70 0.75 0.89 0.97 1.04 1.22 1.38 1.51 1.61 1.65 1.89 2.13 2.14 2.04 1.99 1.91 1.86 1.89 1.90 1.93 1.97
1.02 0.65 0.67 0.79 0.58 0.57 0.58 0.43 0.49 0.54 0.62 0.65 0.43 0.52 0.50 0.43 0.52 0.54 0.52 0.55 0.60 0.58 0.59 0.67 0.70 0.75 0.83 0.85 0.94 1.11 1.35 1.43 1.46 1.55 1.72 1.93 1.96 1.90 1.93 1.95 1.93 1.86 1.77 1.83
0.77 0.66 0.73 0.68 0.51 0.54 0.57 0.66 0.73 0.73 0.88 0.88 0.40 0.43 0.47 0.46 0.54 0.53 0.48 0.52 0.54 0.53 0.56 0.60 0.57 0.60 0.72 0.72 0.72 0.85 1.02 1.26 1.37 1.42 1.50 1.64 1.72 1.69 1.71 1.80 1.85 1.88 1.78 1.68
0.96 0.76 0.67 0.69 0.83 0.81 0.87 1.26 1.55 1.38 1.20 0.67 0.24 0.32 0.44 0.43 0.45 0.50 0.47 0.45 0.47 0.51 0.51 0.54 0.55 0.61 0.67 0.66 0.62 0.66 0.76 0.96 1.14 1.20 1.22 1.30 1.47 1.54 1.52 1.57 1.68 1.74 1.71 1.63
1.00 0.90 0.60 0.68 0.95 1.00 0.87 1.07 1.27 0.98 0.63 0.33 0.20 0.29 0.36 0.36 0.37 0.37 0.33 0.33 0.39 0.44 0.44 0.48 0.50 0.53 0.52 0.54 0.57 0.61 0.68 0.75 0.81 0.86 0.94 1.04 1.15 1.26 1.28 1.29 1.39 1.47 1.46 1.47
0.74 0.67 0.42 0.48 0.63 0.75 0.84 0.82 0.71 0.86 0.57 0.37 0.23 0.24 0.27 0.26 0.27 0.27 0.27 0.29 0.32 0.33 0.33 0.35 0.38 0.38 0.36 0.38 0.47 0.53 0.55 0.59 0.65 0.66 0.70 0.82 0.88 1.00 1.12 1.16 1.21 1.30 1.33 1.31
0.66 0.77 0.48 0.51 0.72 0.81 0.81 0.70 0.81 1.24 0.94 0.51 0.22 0.19 0.27 0.26 0.25 0.27 0.27 0.26 0.25 0.24 0.26 0.29 0.33 0.33 0.29 0.29 0.31 0.35 0.43 0.55 0.60 0.56 0.58 0.66 0.74 0.81 0.89 0.98 1.04 1.06 1.06 1.07
0.60 0.89 0.67 0.66 0.83 0.79 0.78 0.88 0.93 0.98 0.77 0.68 0.41 0.26 0.23 0.23 0.24 0.26 0.25 0.23 0.22 0.21 0.24 0.25 0.26 0.27 0.27 0.25 0.24 0.27 0.33 0.44 0.50 0.51 0.52 0.54 0.59 0.65 0.70 0.75 0.80 0.82 0.83 0.85
0.54 0.94 0.79 0.55 0.47 0.51 0.64 0.68 0.83 1.14 0.83 0.64 0.54 0.31 0.20 0.19 0.20 0.22 0.23 0.23 0.23 0.24 0.25 0.23 0.21 0.21 0.24 0.24 0.24 0.25 0.30 0.36 0.43 0.46 0.48 0.51 0.52 0.53 0.58 0.63 0.63 0.65 0.68 0.70
0.60 1.05 1.06 0.73 0.62 0.65 0.73 0.61 0.64 0.96 1.23 0.94 0.71 0.33 0.16 0.16 0.16 0.18 0.20 0.23 0.25 0.26 0.26 0.25 0.22 0.21 0.23 0.24 0.25 0.24 0.27 0.33 0.37 0.41 0.43 0.46 0.47 0.47 0.49 0.54 0.57 0.59 0.64 0.69
0.87 1.09 0.94 0.73 0.64 0.70 0.67 0.53 0.65 1.28 1.57 0.85 0.41 0.20 0.13 0.16 0.21 0.21 0.21 0.23 0.26 0.28 0.27 0.27 0.29 0.25 0.24 0.24 0.22 0.21 0.23 0.27 0.32 0.34 0.37 0.40 0.45 0.46 0.45 0.47 0.50 0.54 0.58 0.63
0.83 1.11 0.75 0.46 0.36 0.53 0.55 0.51 0.62 0.93 0.92 0.85 0.40 0.22 0.18 0.21 0.28 0.27 0.24 0.21 0.22 0.23 0.25 0.26 0.27 0.27 0.26 0.25 0.24 0.21 0.21 0.23 0.27 0.31 0.33 0.36 0.42 0.45 0.47 0.46 0.49 0.51 0.53 0.58
0.66 0.92 0.79 0.52 0.31 0.43 0.50 0.46 0.48 0.53 0.56 0.56 0.40 0.33 0.23 0.23 0.24 0.24 0.21 0.19 0.19 0.20 0.23 0.24 0.22 0.24 0.23 0.26 0.28 0.26 0.24 0.23 0.25 0.28 0.29 0.32 0.36 0.40 0.45 0.48 0.48 0.50 0.53 0.58
0.55 0.79 0.99 0.65 0.35 0.49 0.55 0.45 0.46 0.46 0.43 0.46 0.49 0.39 0.28 0.27 0.26 0.25 0.22 0.18 0.17 0.15 0.15 0.18 0.19 0.21 0.21 0.21 0.23 0.24 0.24 0.22 0.23 0.26 0.27 0.30 0.34 0.39 0.42 0.48 0.53 0.59 0.63 0.70
0.36 0.68 1.08 0.77 0.51 0.64 0.42 0.32 0.34 0.39 0.40 0.42 0.40 0.31 0.25 0.25 0.25 0.24 0.21 0.17 0.14 0.11 0.09 0.10 0.13 0.14 0.14 0.15 0.16 0.21 0.21 0.21 0.22 0.26 0.31 0.34 0.36 0.45 0.52 0.54 0.60 0.69 0.75 0.82
0.20 0.55 1.01 0.89 0.64 0.38 0.23 0.22 0.25 0.35 0.41 0.37 0.28 0.21 0.18 0.19 0.23 0.23 0.19 0.14 0.12 0.10 0.10 0.09 0.10 0.13 0.13 0.14 0.16 0.20 0.23 0.24 0.24 0.27 0.33 0.38 0.40 0.50 0.60 0.61 0.65 0.72 0.78 0.84
0.19 0.44 0.97 0.93 0.75 0.35 0.20 0.11 0.12 0.25 0.44 0.30 0.24 0.22 0.22 0.24 0.29 0.24 0.17 0.14 0.14 0.13 0.11 0.12 0.12 0.13 0.16 0.19 0.21 0.25 0.28 0.35 0.37 0.37 0.41 0.48 0.55 0.63 0.68 0.68 0.68 0.67 0.68 0.70
0.32 0.62 0.89 0.79 0.72 0.29 0.16 0.09 0.12 0.36 0.44 0.20 0.18 0.20 0.23 0.25 0.24 0.20 0.14 0.12 0.14 0.16 0.16 0.15 0.16 0.19 0.22 0.22 0.24 0.28 0.32 0.42 0.48 0.50 0.52 0.55 0.60 0.63 0.63 0.63 0.60 0.57 0.54 0.54
0.24 0.39 0.46 0.51 0.70 0.41 0.17 0.13 0.23 0.32 0.20 0.17 0.18 0.20 0.21 0.21 0.17 0.15 0.17 0.14 0.12 0.12 0.14 0.17 0.20 0.23 0.25 0.29 0.34 0.36 0.39 0.44 0.48 0.50 0.51 0.50 0.50 0.51 0.53 0.53 0.53 0.50 0.48 0.48
0.22 0.29 0.33 0.38 0.39 0.26 0.18 0.18 0.19 0.16 0.15 0.14 0.16 0.17 0.17 0.17 0.17 0.14 0.13 0.12 0.11 0.12 0.13 0.16 0.21 0.26 0.29 0.31 0.34 0.37 0.37 0.37 0.39 0.40 0.42 0.41 0.38 0.37 0.38 0.40 0.42 0.43 0.43 0.43
0.23 0.20 0.27 0.32 0.27 0.19 0.17 0.14 0.12 0.10 0.10 0.09 0.09 0.11 0.15 0.17 0.16 0.15 0.13 0.12 0.10 0.10 0.11 0.13 0.16 0.18 0.21 0.22 0.25 0.27 0.27 0.27 0.27 0.28 0.31 0.32 0.30 0.28 0.30 0.31 0.34 0.36 0.38 0.38
0.26 0.25 0.28 0.29 0.22 0.17 0.15 0.11 0.09 0.09 0.08 0.06 0.05 0.06 0.09 0.11 0.11 0.12 0.13 0.11 0.10 0.10 0.10 0.11 0.11 0.12 0.14 0.15 0.16 0.18 0.18 0.19 0.22 0.22 0.22 0.24 0.26 0.26 0.28 0.30 0.34 0.38 0.40 0.45
0.15 0.18 0.27 0.29 0.20 0.20 0.18 0.12 0.10 0.10 0.08 0.07 0.06 0.06 0.06 0.07 0.08 0.07 0.08 0.07 0.08 0.10 0.10 0.11 0.11 0.12 0.16 0.15 0.14 0.13 0.13 0.14 0.19 0.21 0.21 0.23 0.25 0.25 0.26 0.28 0.32 0.38 0.41 0.46

GEFSCGP_prec_meanprecacc_210.txt.gz
Total_Precipitation_Accumulation
1.81 1.76 1.31 0.78 0.59 0.47 0.44 0.49 0.45 0.41 0.39 0.51 0.57 0.55 0.55 0.53 0.50 0.53 0.55 0.56 0.66 0.79 0.90 1.07 1.24 1.54 1.77 2.03 2.31 2.38 2.61 2.77 2.91 2.94 2.80 2.60 2.39 2.26 2.16 2.09 2.02 1.87 1.72 1.60
1.68 1.31 0.74 0.57 0.57 0.55 0.52 0.55 0.48 0.42 0.38 0.46 0.50 0.48 0.53 0.57 0.55 0.48 0.46 0.47 0.52 0.66 0.76 0.86 1.02 1.28 1.47 1.65 1.84 1.98 2.15 2.38 2.58 2.67 2.55 2.55 2.58 2.41 2.21 2.12 2.06 2.00 1.92 1.78
1.21 0.80 0.55 0.60 0.67 0.69 0.60 0.55 0.49 0.45 0.41 0.46 0.48 0.51 0.49 0.51 0.53 0.50 0.46 0.46 0.51 0.63 0.65 0.72 0.82 1.05 1.20 1.33 1.52 1.66 1.81 1.96 2.06 2.40 2.59 2.56 2.62 2.55 2.26 2.03 1.89 1.96 2.04 2.00
1.02 0.62 0.61 0.73 0.67 0.66 0.67 0.45 0.44 0.45 0.61 0.67 0.49 0.63 0.48 0.44 0.47 0.51 0.50 0.51 0.59 0.65 0.67 0.71 0.77 0.91 0.99 1.06 1.26 1.45 1.62 1.75 1.77 2.01 2.27 2.26 2.14 2.08 1.98 1.94 1.98 2.02 2.05 2.07
1.03 0.66 0.67 0.79 0.58 0.57 0.58 0.43 0.49 0.55 0.63 0.66 0.44 0.53 0.50 0.43 0.52 0.55 0.53 0.56 0.62 0.61 0.62 0.69 0.72 0.77 0.85 0.87 0.97 1.16 1.44 1.57 1.61 1.66 1.83 2.02 2.05 2.00 2.01 2.02 2.02 1.99 1.91 1.93
0.78 0.66 0.73 0.68 0.51 0.54 0.57 0.67 0.73 0.73 0.89 0.90 0.40 0.44 0.47 0.46 0.54 0.53 0.48 0.53 0.55 0.54 0.58 0.62 0.60 0.63 0.74 0.74 0.74 0.89 1.08 1.37 1.52 1.55 1.60 1.71 1.79 1.76 1.78 1.85 1.90 1.95 1.87 1.78
0.97 0.77 0.67 0.69 0.84 0.82 0.87 1.27 1.57 1.40 1.22 0.68 0.25 0.32 0.45 0.43 0.45 0.50 0.48 0.46 0.48 0.52 0.52 0.56 0.58 0.65 0.70 0.68 0.64 0.68 0.80 1.05 1.27 1.34 1.32 1.38 1.54 1.59 1.57 1.60 1.70 1.77 1.75 1.68
1.02 0.91 0.60 0.68 0.96 1.00 0.87 1.08 1.28 0.99 0.64 0.33 0.21 0.29 0.37 0.36 0.38 0.38 0.33 0.33 0.39 0.45 0.45 0.49 0.52 0.56 0.55 0.56 0.59 0.63 0.71 0.80 0.91 1.00 1.06 1.11 1.21 1.31 1.32 1.31 1.41 1.49 1.49 1.50
0.76 0.68 0.42 0.49 0.63 0.76 0.85 0.83 0.71 0.87 0.58 0.38 0.23 0.24 0.27 0.26 0.27 0.28 0.28 0.29 0.32 0.34 0.34 0.36 0.39 0.41 0.39 0.41 0.49 0.55 0.58 0.63 0.71 0.75 0.80 0.89 0.94 1.05 1.16 1.20 1.25 1.33 1.35 1.33
0.68 0.79 0.49 0.52 0.73 0.82 0.81 0.71 0.82 1.27 0.96 0.52 0.23 0.20 0.27 0.26 0.25 0.28 0.28 0.26 0.26 0.25 0.27 0.29 0.33 0.34 0.31 0.31 0.33 0.37 0.44 0.57 0.65 0.62 0.65 0.72 0.79 0.85 0.93 1.02 1.07 1.10 1.09 1.10
0.62 0.93 0.69 0.68 0.85 0.80 0.79 0.90 0.95 1.01 0.79 0.70 0.43 0.27 0.24 0.24 0.24 0.26 0.26 0.23 0.22 0.21 0.24 0.26 0.26 0.28 0.29 0.27 0.26 0.28 0.35 0.45 0.54 0.55 0.56 0.58 0.63 0.69 0.73 0.78 0.83 0.86 0.87 0.88
0.57 1.00 0.83 0.56 0.48 0.52 0.65 0.69 0.85 1.17 0.85 0.66 0.56 0.33 0.21 0.19 0.20 0.23 0.24 0.23 0.23 0.24 0.26 0.24 0.22 0.22 0.26 0.26 0.26 0.26 0.31 0.37 0.46 0.50 0.53 0.55 0.55 0.57 0.62 0.67 0.67 0.67 0.70 0.71
0.65 1.13 1.13 0.78 0.66 0.67 0.75 0.63 0.66 0.98 1.26 0.96 0.73 0.35 0.17 0.16 0.17 0.18 0.21 0.23 0.25 0.26 0.27 0.25 0.22 0.21 0.24 0.26 0.26 0.25 0.28 0.34 0.38 0.44 0.47 0.50 0.51 0.50 0.52 0.57 0.60 0.62 0.67 0.71
0.93 1.16 1.00 0.79 0.70 0.76 0.71 0.55 0.66 1.30 1.61 0.88 0.43 0.21 0.14 0.16 0.22 0.22 0.22 0.23 0.27 0.29 0.28 0.28 0.30 0.26 0.24 0.24 0.22 0.22 0.24 0.29 0.32 0.37 0.40 0.42 0.49 0.49 0.48 0.49 0.52 0.56 0.60 0.66
0.87 1.16 0.77 0.48 0.38 0.56 0.58 0.54 0.64 0.96 0.95 0.88 0.42 0.23 0.19 0.22 0.28 0.27 0.24 0.21 0.22 0.24 0.26 0.26 0.27 0.28 0.27 0.26 0.24 0.22 0.21 0.24 0.28 0.32 0.35 0.37 0.43 0.48 0.50 0.49 0.50 0.53 0.55 0.61
0.71 0.96 0.80 0.53 0.32 0.44 0.52 0.47 0.49 0.55 0.58 0.57 0.41 0.33 0.24 0.23 0.25 0.24 0.21 0.19 0.20 0.20 0.23 0.24 0.22 0.25 0.24 0.26 0.28 0.27 0.25 0.24 0.26 0.29 0.31 0.33 0.36 0.41 0.46 0.50 0.51 0.51 0.54 0.61
0.60 0.84 1.02 0.67 0.36 0.50 0.57 0.46 0.47 0.47 0.44 0.48 0.51 0.40 0.28 0.28 0.27 0.25 0.22 0.19 0.17 0.15 0.15 0.18 0.19 0.21 0.21 0.22 0.24 0.25 0.25 0.23 0.25 0.27 0.28 0.31 0.35 0.39 0.42 0.49 0.54 0.61 0.64 0.72
0.39 0.72 1.12 0.80 0.53 0.67 0.44 0.32 0.35 0.40 0.41 0.44 0.42 0.32 0.26 0.26 0.26 0.25 0.21 0.18 0.14 0.11 0.09 0.10 0.13 0.14 0.14 0.15 0.17 0.21 0.22 0.23 0.23 0.27 0.33 0.35 0.37 0.46 0.53 0.54 0.61 0.70 0.77 0.83
0.21 0.59 1.08 0.94 0.68 0.40 0.24 0.22 0.26 0.36 0.42 0.38 0.30 0.22 0.19 0.20 0.24 0.24 0.20 0.15 0.13 0.11 0.10 0.10 0.10 0.13 0.13 0.14 0.16 0.20 0.24 0.25 0.25 0.28 0.35 0.39 0.41 0.51 0.61 0.61 0.65 0.73 0.79 0.85
0.20 0.48 1.05 1.01 0.82 0.38 0.22 0.12 0.12 0.26 0.46 0.31 0.25 0.23 0.23 0.25 0.31 0.26 0.18 0.16 0.15 0.14 0.12 0.13 0.13 0.14 0.17 0.19 0.22 0.26 0.29 0.37 0.39 0.39 0.43 0.50 0.57 0.65 0.69 0.69 0.69 0.68 0.69 0.71
0.37 0.68 0.96 0.85 0.77 0.32 0.17 0.10 0.13 0.39 0.48 0.22 0.19 0.20 0.23 0.26 0.25 0.22 0.15 0.13 0.16 0.18 0.17 0.16 0.17 0.19 0.22 0.23 0.25 0.30 0.34 0.45 0.52 0.53 0.56 0.58 0.63 0.66 0.66 0.65 0.62 0.58 0.55 0.55
0.30 0.47 0.54 0.58 0.78 0.47 0.19 0.14 0.26 0.36 0.23 0.19 0.20 0.21 0.22 0.22 0.19 0.16 0.18 0.15 0.13 0.14 0.15 0.17 0.20 0.23 0.25 0.29 0.35 0.38 0.41 0.47 0.51 0.53 0.55 0.54 0.54 0.54 0.56 0.56 0.55 0.52 0.50 0.50
0.28 0.37 0.41 0.45 0.47 0.32 0.22 0.21 0.22 0.18 0.17 0.16 0.17 0.19 0.19 0.19 0.18 0.15 0.14 0.13 0.13 0.13 0.14 0.17 0.22 0.26 0.29 0.31 0.34 0.38 0.38 0.39 0.41 0.43 0.45 0.44 0.41 0.40 0.42 0.43 0.45 0.46 0.45 0.45
0.29 0.25 0.33 0.39 0.33 0.23 0.20 0.17 0.14 0.12 0.12 0.10 0.10 0.12 0.16 0.19 0.18 0.16 0.14 0.13 0.11 0.11 0.12 0.14 0.17 0.19 0.22 0.23 0.25 0.28 0.27 0.28 0.29 0.31 0.34 0.35 0.32 0.31 0.32 0.33 0.36 0.39 0.40 0.40
0.33 0.30 0.34 0.35 0.27 0.21 0.19 0.15 0.12 0.11 0.09 0.08 0.07 0.07 0.10 0.13 0.13 0.13 0.14 0.12 0.12 0.11 0.12 0.12 0.13 0.14 0.16 0.16 0.17 0.19 0.19 0.20 0.23 0.24 0.25 0.27 0.29 0.29 0.31 0.33 0.36 0.40 0.41 0.46
0.20 0.24 0.32 0.36 0.25 0.24 0.23 0.17 0.13 0.12 0.11 0.09 0.08 0.08 0.07 0.08 0.09 0.08 0.09 0.09 0.10 0.11 0.12 0.12 0.12 0.14 0.17 0.17 0.15 0.15 0.14 0.16 0.21 0.23 0.24 0.26 0.28 0.29 0.29 0.32 0.35 0.40 0.43 0.48